Wetterdaten: Donnerstag, 08.09.2016
Datum Zeit Temp. Aussen Temp. o. S. +5cm Feuchte Auss BlattFeu 1 Luftdruck Regen Sonnenschein Regendauer Solar Windben Empfang
08.09.2016 00:00 17,7 C 15,6 C 13,9 C 82 % 1 lf 1013,7 hPa 0,0 l/m 0 min 0 min 0 W/m 0,0 km/h (0 Bft) 97,87 %
08.09.2016 00:02 17,6 C 15,6 C 13,9 C 82 % 1 lf 1013,7 hPa 0,0 l/m 0 min 0 min 0 W/m 0,0 km/h (0 Bft) 97,44 %
08.09.2016 00:05 17,6 C 15,6 C 13,9 C 83 % 1 lf 1013,7 hPa 0,0 l/m 0 min 0 min 0 W/m 0,0 km/h (0 Bft) 95,77 %
08.09.2016 00:06 17,6 C 15,6 C 13,9 C 83 % 1 lf 1013,7 hPa 0,0 l/m 0 min 0 min 0 W/m 0,0 km/h (0 Bft) 95,83 %
08.09.2016 00:08 17,5 C 15,6 C 13,9 C 83 % 1 lf 1013,7 hPa 0,0 l/m 0 min 0 min 0 W/m 0,0 km/h (0 Bft) 97,96 %
08.09.2016 00:10 17,4 C 15,6 C 13,9 C 83 % 1 lf 1013,8 hPa 0,0 l/m 0 min 0 min 0 W/m 0,0 km/h (0 Bft) 94,29 %
08.09.2016 00:12 17,4 C 15,6 C 13,9 C 83 % 1 lf 1013,8 hPa 0,0 l/m 0 min 0 min 0 W/m 0,0 km/h (0 Bft) 94,83 %
08.09.2016 00:14 17,4 C 15,6 C 13,9 C 83 % 1 lf 1013,7 hPa 0,0 l/m 0 min 0 min 0 W/m 0,0 km/h (0 Bft) 94,29 %
08.09.2016 00:16 17,3 C 15,6 C 13,9 C 84 % 1 lf 1013,7 hPa 0,0 l/m 0 min 0 min 0 W/m 0,0 km/h (0 Bft) 96,36 %
08.09.2016 00:18 17,3 C 15,6 C 13,9 C 84 % 1 lf 1013,7 hPa 0,0 l/m 0 min 0 min 0 W/m 0,0 km/h (0 Bft) 98,00 %
08.09.2016 00:20 17,3 C 15,6 C 13,9 C 84 % 1 lf 1013,7 hPa 0,0 l/m 0 min 0 min 0 W/m 0,0 km/h (0 Bft) 97,92 %
08.09.2016 00:22 17,2 C 15,6 C 13,9 C 83 % 1 lf 1013,7 hPa 0,0 l/m 0 min 0 min 0 W/m 0,0 km/h (0 Bft) 94,29 %
08.09.2016 00:24 17,2 C 15,6 C 13,9 C 84 % 1 lf 1013,7 hPa 0,0 l/m 0 min 0 min 0 W/m 0,0 km/h (0 Bft) 96,30 %
08.09.2016 00:26 17,2 C 16,1 C 13,9 C 84 % 1 lf 1013,7 hPa 0,0 l/m 0 min 0 min 0 W/m 0,0 km/h (0 Bft) 96,00 %
08.09.2016 00:28 17,2 C 16,1 C 13,9 C 84 % 1 lf 1013,7 hPa 0,0 l/m 0 min 0 min 0 W/m 0,0 km/h (0 Bft) 95,74 %
08.09.2016 00:30 17,1 C 16,1 C 13,9 C 84 % 1 lf 1013,6 hPa 0,0 l/m 0 min 0 min 0 W/m 0,0 km/h (0 Bft) 97,92 %
08.09.2016 00:32 17,1 C 15,6 C 13,9 C 84 % 1 lf 1013,6 hPa 0,0 l/m 0 min 0 min 0 W/m 0,0 km/h (0 Bft) 97,14 %
08.09.2016 00:34 17,1 C 15,6 C 13,9 C 84 % 1 lf 1013,7 hPa 0,0 l/m 0 min 0 min 0 W/m 0,0 km/h (0 Bft) 94,44 %
08.09.2016 00:36 17,0 C 15,6 C 13,3 C 84 % 1 lf 1013,6 hPa 0,0 l/m 0 min 0 min 0 W/m 0,0 km/h (0 Bft) 92,00 %
08.09.2016 00:38 17,0 C 15,6 C 13,3 C 84 % 1 lf 1013,6 hPa 0,0 l/m 0 min 0 min 0 W/m 0,0 km/h (0 Bft) 93,75 %
08.09.2016 00:40 16,9 C 15,6 C 13,3 C 84 % 1 lf 1013,6 hPa 0,0 l/m 0 min 0 min 0 W/m 0,0 km/h (0 Bft) 95,74 %
08.09.2016 00:42 16,9 C 15,6 C 13,3 C 84 % 1 lf 1013,6 hPa 0,0 l/m 0 min 0 min 0 W/m 0,0 km/h (0 Bft) 94,29 %
08.09.2016 00:44 16,9 C 15,6 C 13,3 C 84 % 1 lf 1013,6 hPa 0,0 l/m 0 min 0 min 0 W/m 0,0 km/h (0 Bft) 96,36 %
08.09.2016 00:46 16,8 C 15,6 C 13,3 C 84 % 1 lf 1013,6 hPa 0,0 l/m 0 min 0 min 0 W/m 0,0 km/h (0 Bft) 93,88 %
08.09.2016 00:48 16,8 C 15,6 C 13,3 C 84 % 1 lf 1013,5 hPa 0,0 l/m 0 min 0 min 0 W/m 0,0 km/h (0 Bft) 97,92 %
08.09.2016 00:50 16,8 C 15,6 C 13,3 C 84 % 2 lf 1013,6 hPa 0,0 l/m 0 min 0 min 0 W/m 0,0 km/h (0 Bft) 94,29 %
08.09.2016 00:52 16,8 C 15,6 C 13,3 C 84 % 2 lf 1013,5 hPa 0,0 l/m 0 min 0 min 0 W/m 0,0 km/h (0 Bft) 94,55 %
08.09.2016 00:54 16,7 C 15,6 C 13,3 C 84 % 2 lf 1013,5 hPa 0,0 l/m 0 min 0 min 0 W/m 0,0 km/h (0 Bft) 95,74 %
08.09.2016 00:56 16,7 C 15,0 C 13,3 C 84 % 2 lf 1013,5 hPa 0,0 l/m 0 min 0 min 0 W/m 0,0 km/h (0 Bft) 96,00 %
08.09.2016 00:58 16,7 C 15,0 C 13,3 C 85 % 2 lf 1013,5 hPa 0,0 l/m 0 min 0 min 0 W/m 0,0 km/h (0 Bft) 95,65 %
08.09.2016 01:00 16,6 C 15,0 C 13,3 C 85 % 2 lf 1013,5 hPa 0,0 l/m 0 min 0 min 0 W/m 0,0 km/h (0 Bft) 95,83 %
08.09.2016 01:02 16,6 C 15,0 C 13,3 C 85 % 2 lf 1013,5 hPa 0,0 l/m 0 min 0 min 0 W/m 0,0 km/h (0 Bft) 97,14 %
08.09.2016 01:04 16,6 C 15,0 C 13,3 C 85 % 2 lf 1013,4 hPa 0,0 l/m 0 min 0 min 0 W/m 0,0 km/h (0 Bft) 100,00 %
08.09.2016 01:06 16,6 C 15,0 C 13,3 C 85 % 2 lf 1013,4 hPa 0,0 l/m 0 min 0 min 0 W/m 0,0 km/h (0 Bft) 100,00 %
08.09.2016 01:08 16,6 C 15,0 C 13,3 C 85 % 2 lf 1013,4 hPa 0,0 l/m 0 min 0 min 0 W/m 0,0 km/h (0 Bft) 89,80 %
08.09.2016 01:10 16,5 C 15,0 C 13,3 C 85 % 2 lf 1013,4 hPa 0,0 l/m 0 min 0 min 0 W/m 0,0 km/h (0 Bft) 93,62 %
08.09.2016 01:12 16,4 C 15,0 C 13,3 C 85 % 2 lf 1013,3 hPa 0,0 l/m 0 min 0 min 0 W/m 0,0 km/h (0 Bft) 97,92 %
08.09.2016 01:14 16,4 C 15,0 C 13,3 C 85 % 2 lf 1013,3 hPa 0,0 l/m 0 min 0 min 0 W/m 0,0 km/h (0 Bft) 100,00 %
08.09.2016 01:16 16,4 C 14,4 C 13,3 C 85 % 2 lf 1013,3 hPa 0,0 l/m 0 min 0 min 0 W/m 0,0 km/h (0 Bft) 100,00 %
08.09.2016 01:18 16,4 C 14,4 C 13,3 C 85 % 2 lf 1013,3 hPa 0,0 l/m 0 min 0 min 0 W/m 0,0 km/h (0 Bft) 98,00 %
08.09.2016 01:20 16,3 C 14,4 C 13,3 C 85 % 2 lf 1013,2 hPa 0,0 l/m 0 min 0 min 0 W/m 0,0 km/h (0 Bft) 95,74 %
08.09.2016 01:22 16,3 C 14,4 C 13,3 C 85 % 2 lf 1013,2 hPa 0,0 l/m 0 min 0 min 0 W/m 0,0 km/h (0 Bft) 97,22 %
08.09.2016 01:24 16,3 C 14,4 C 13,3 C 86 % 2 lf 1013,2 hPa 0,0 l/m 0 min 0 min 0 W/m 0,0 km/h (0 Bft) 94,44 %
08.09.2016 01:26 16,3 C 14,4 C 13,3 C 86 % 2 lf 1013,3 hPa 0,0 l/m 0 min 0 min 0 W/m 0,0 km/h (0 Bft) 95,74 %
08.09.2016 01:28 16,3 C 14,4 C 13,3 C 86 % 2 lf 1013,3 hPa 0,0 l/m 0 min 0 min 0 W/m 0,0 km/h (0 Bft) 94,00 %
08.09.2016 01:30 16,3 C 14,4 C 13,3 C 86 % 2 lf 1013,3 hPa 0,0 l/m 0 min 0 min 0 W/m 0,0 km/h (0 Bft) 93,62 %
08.09.2016 01:32 16,2 C 15,0 C 12,8 C 86 % 2 lf 1013,3 hPa 0,0 l/m 0 min 0 min 0 W/m 0,0 km/h (0 Bft) 95,65 %
08.09.2016 01:34 16,2 C 15,0 C 12,8 C 86 % 2 lf 1013,2 hPa 0,0 l/m 0 min 0 min 0 W/m 0,0 km/h (0 Bft) 95,83 %
08.09.2016 01:36 16,2 C 15,0 C 12,8 C 86 % 2 lf 1013,2 hPa 0,0 l/m 0 min 0 min 0 W/m 0,0 km/h (0 Bft) 94,29 %
08.09.2016 01:38 16,2 C 15,0 C 12,8 C 86 % 2 lf 1013,1 hPa 0,0 l/m 0 min 0 min 0 W/m 0,0 km/h (0 Bft) 96,36 %
08.09.2016 01:40 16,1 C 15,0 C 12,8 C 86 % 2 lf 1013,0 hPa 0,0 l/m 0 min 0 min 0 W/m 0,0 km/h (0 Bft) 93,62 %
08.09.2016 01:42 16,1 C 15,0 C 12,8 C 86 % 2 lf 1012,9 hPa 0,0 l/m 0 min 0 min 0 W/m 0,0 km/h (0 Bft) 95,74 %
08.09.2016 01:44 16,1 C 15,0 C 12,8 C 87 % 2 lf 1012,9 hPa 0,0 l/m 0 min 0 min 0 W/m 0,0 km/h (0 Bft) 95,92 %
08.09.2016 01:46 16,1 C 14,4 C 12,8 C 87 % 2 lf 1012,9 hPa 0,0 l/m 0 min 0 min 0 W/m 0,0 km/h (0 Bft) 93,75 %
08.09.2016 01:48 16,0 C 14,4 C 12,8 C 87 % 2 lf 1012,9 hPa 0,0 l/m 0 min 0 min 0 W/m 0,0 km/h (0 Bft) 95,74 %
08.09.2016 01:50 16,0 C 14,4 C 12,8 C 87 % 2 lf 1012,9 hPa 0,0 l/m 0 min 0 min 0 W/m 0,0 km/h (0 Bft) 94,29 %
08.09.2016 01:52 15,9 C 14,4 C 12,8 C 87 % 2 lf 1012,8 hPa 0,0 l/m 0 min 0 min 0 W/m 0,0 km/h (0 Bft) 93,62 %
08.09.2016 01:54 15,9 C 15,0 C 12,8 C 87 % 2 lf 1012,6 hPa 0,0 l/m 0 min 0 min 0 W/m 2,1 km/h (1 Bft) 95,74 %
08.09.2016 01:56 15,9 C 15,0 C 12,8 C 87 % 2 lf 1012,5 hPa 0,0 l/m 0 min 0 min 0 W/m 6,3 km/h (2 Bft) 96,30 %
08.09.2016 01:58 15,9 C 15,0 C 12,8 C 87 % 2 lf 1012,4 hPa 0,0 l/m 0 min 0 min 0 W/m 6,3 km/h (2 Bft) 92,00 %
08.09.2016 02:00 15,9 C 15,6 C 13,3 C 87 % 2 lf 1012,3 hPa 0,0 l/m 0 min 0 min 0 W/m 10,5 km/h (2 Bft) 95,83 %
08.09.2016 02:02 15,9 C 15,6 C 13,3 C 88 % 2 lf 1012,3 hPa 0,0 l/m 0 min 0 min 0 W/m 12,6 km/h (3 Bft) 93,62 %
08.09.2016 02:04 15,9 C 15,6 C 13,3 C 88 % 2 lf 1012,2 hPa 0,0 l/m 0 min 0 min 0 W/m 14,6 km/h (3 Bft) 93,62 %
08.09.2016 02:06 15,9 C 16,1 C 13,3 C 88 % 2 lf 1012,2 hPa 0,0 l/m 0 min 0 min 0 W/m 10,5 km/h (2 Bft) 94,29 %
08.09.2016 02:08 15,9 C 16,7 C 13,9 C 89 % 2 lf 1012,3 hPa 0,0 l/m 0 min 0 min 0 W/m 12,6 km/h (3 Bft) 98,15 %
08.09.2016 02:10 15,9 C 16,7 C 13,9 C 89 % 2 lf 1012,2 hPa 0,0 l/m 0 min 0 min 0 W/m 8,4 km/h (2 Bft) 98,00 %
08.09.2016 02:12 16,0 C 16,7 C 13,9 C 89 % 2 lf 1012,2 hPa 0,0 l/m 0 min 0 min 0 W/m 6,3 km/h (2 Bft) 93,75 %
08.09.2016 02:14 16,0 C 16,7 C 13,9 C 90 % 1 lf 1012,2 hPa 0,0 l/m 0 min 0 min 0 W/m 10,5 km/h (2 Bft) 100,00 %
08.09.2016 02:16 16,0 C 16,7 C 13,9 C 90 % 1 lf 1012,3 hPa 0,0 l/m 0 min 0 min 0 W/m 4,2 km/h (1 Bft) 100,00 %
08.09.2016 02:18 16,0 C 16,1 C 13,9 C 90 % 1 lf 1012,3 hPa 0,0 l/m 0 min 0 min 0 W/m 2,1 km/h (1 Bft) 94,55 %
08.09.2016 02:20 16,0 C 16,1 C 13,9 C 90 % 1 lf 1012,3 hPa 0,0 l/m 0 min 0 min 0 W/m 2,1 km/h (1 Bft) 97,96 %
08.09.2016 02:22 16,0 C 16,1 C 13,9 C 90 % 1 lf 1012,3 hPa 0,0 l/m 0 min 0 min 0 W/m 0,0 km/h (0 Bft) 97,87 %
08.09.2016 02:24 16,1 C 16,1 C 13,9 C 90 % 2 lf 1012,2 hPa 0,0 l/m 0 min 0 min 0 W/m 2,1 km/h (1 Bft) 100,00 %
08.09.2016 02:26 16,0 C 16,1 C 13,3 C 91 % 2 lf 1012,1 hPa 0,0 l/m 0 min 0 min 0 W/m 2,1 km/h (1 Bft) 97,87 %
08.09.2016 02:28 16,1 C 15,6 C 13,3 C 91 % 2 lf 1012,1 hPa 0,0 l/m 0 min 0 min 0 W/m 2,1 km/h (1 Bft) 97,14 %
08.09.2016 02:30 16,1 C 15,6 C 13,3 C 91 % 2 lf 1012,0 hPa 0,0 l/m 0 min 0 min 0 W/m 0,0 km/h (0 Bft) 98,18 %
08.09.2016 02:32 16,1 C 15,6 C 13,3 C 91 % 2 lf 1011,9 hPa 0,0 l/m 0 min 0 min 0 W/m 0,0 km/h (0 Bft) 97,83 %
08.09.2016 02:34 16,1 C 15,6 C 13,3 C 91 % 2 lf 1011,9 hPa 0,0 l/m 0 min 0 min 0 W/m 0,0 km/h (0 Bft) 98,00 %
08.09.2016 02:36 16,1 C 15,0 C 13,3 C 91 % 2 lf 1011,9 hPa 0,0 l/m 0 min 0 min 0 W/m 0,0 km/h (0 Bft) 93,62 %
08.09.2016 02:38 16,0 C 15,0 C 13,3 C 91 % 2 lf 1011,9 hPa 0,0 l/m 0 min 0 min 0 W/m 0,0 km/h (0 Bft) 93,62 %
08.09.2016 02:40 16,0 C 15,0 C 13,3 C 91 % 2 lf 1011,9 hPa 0,0 l/m 0 min 0 min 0 W/m 0,0 km/h (0 Bft) 97,92 %
08.09.2016 02:42 16,0 C 15,0 C 13,3 C 91 % 2 lf 1011,8 hPa 0,0 l/m 0 min 0 min 0 W/m 0,0 km/h (0 Bft) 100,00 %
08.09.2016 02:44 16,0 C 15,0 C 12,8 C 90 % 2 lf 1011,9 hPa 0,0 l/m 0 min 0 min 0 W/m 0,0 km/h (0 Bft) 96,30 %
08.09.2016 02:46 15,9 C 14,4 C 12,8 C 90 % 2 lf 1011,9 hPa 0,0 l/m 0 min 0 min 0 W/m 0,0 km/h (0 Bft) 98,00 %
08.09.2016 02:48 15,9 C 14,4 C 12,8 C 90 % 2 lf 1011,9 hPa 0,0 l/m 0 min 0 min 0 W/m 2,1 km/h (1 Bft) 97,87 %
08.09.2016 02:50 15,9 C 14,4 C 12,8 C 90 % 2 lf 1011,9 hPa 0,0 l/m 0 min 0 min 0 W/m 2,1 km/h (1 Bft) 93,62 %
08.09.2016 02:52 15,9 C 14,4 C 12,8 C 90 % 2 lf 1011,9 hPa 0,0 l/m 0 min 0 min 0 W/m 4,2 km/h (1 Bft) 97,87 %
08.09.2016 02:54 15,9 C 14,4 C 12,8 C 90 % 2 lf 1011,8 hPa 0,0 l/m 0 min 0 min 0 W/m 2,1 km/h (1 Bft) 97,87 %
08.09.2016 02:56 15,9 C 14,4 C 12,8 C 90 % 2 lf 1011,9 hPa 0,0 l/m 0 min 0 min 0 W/m 0,0 km/h (0 Bft) 97,22 %
08.09.2016 02:58 15,8 C 14,4 C 12,8 C 90 % 2 lf 1011,9 hPa 0,0 l/m 0 min 0 min 0 W/m 0,0 km/h (0 Bft) 98,15 %
08.09.2016 03:00 15,8 C 14,4 C 12,8 C 90 % 2 lf 1011,9 hPa 0,0 l/m 0 min 0 min 0 W/m 0,0 km/h (0 Bft) 98,00 %
08.09.2016 03:02 15,8 C 14,4 C 12,8 C 90 % 2 lf 1011,9 hPa 0,0 l/m 0 min 0 min 0 W/m 0,0 km/h (0 Bft) 100,00 %
08.09.2016 03:04 15,7 C 14,4 C 12,8 C 90 % 2 lf 1011,9 hPa 0,0 l/m 0 min 0 min 0 W/m 0,0 km/h (0 Bft) 100,00 %
08.09.2016 03:06 15,7 C 14,4 C 12,8 C 90 % 2 lf 1011,9 hPa 0,0 l/m 0 min 0 min 0 W/m 0,0 km/h (0 Bft) 97,87 %
08.09.2016 03:08 15,7 C 13,9 C 12,8 C 90 % 2 lf 1011,8 hPa 0,0 l/m 0 min 0 min 0 W/m 0,0 km/h (0 Bft) 100,00 %
08.09.2016 03:10 15,7 C 13,9 C 12,8 C 90 % 2 lf 1011,7 hPa 0,0 l/m 0 min 0 min 0 W/m 0,0 km/h (0 Bft) 100,00 %
08.09.2016 03:12 15,6 C 14,4 C 12,8 C 90 % 2 lf 1011,7 hPa 0,0 l/m 0 min 0 min 0 W/m 0,0 km/h (0 Bft) 95,83 %
08.09.2016 03:14 15,6 C 14,4 C 12,8 C 90 % 2 lf 1011,7 hPa 0,0 l/m 0 min 0 min 0 W/m 0,0 km/h (0 Bft) 97,87 %
08.09.2016 03:16 15,6 C 13,9 C 12,8 C 90 % 2 lf 1011,7 hPa 0,0 l/m 0 min 0 min 0 W/m 0,0 km/h (0 Bft) 100,00 %
08.09.2016 03:18 15,6 C 13,9 C 12,8 C 90 % 2 lf 1011,7 hPa 0,0 l/m 0 min 0 min 0 W/m 0,0 km/h (0 Bft) 100,00 %
08.09.2016 03:20 15,5 C 13,9 C 12,8 C 90 % 2 lf 1011,6 hPa 0,0 l/m 0 min 0 min 0 W/m 0,0 km/h (0 Bft) 100,00 %
08.09.2016 03:22 15,5 C 13,9 C 12,8 C 90 % 2 lf 1011,7 hPa 0,0 l/m 0 min 0 min 0 W/m 0,0 km/h (0 Bft) 95,74 %
08.09.2016 03:24 15,4 C 13,9 C 12,8 C 90 % 2 lf 1011,8 hPa 0,0 l/m 0 min 0 min 0 W/m 0,0 km/h (0 Bft) 100,00 %
08.09.2016 03:26 15,4 C 13,9 C 12,8 C 90 % 2 lf 1011,8 hPa 0,0 l/m 0 min 0 min 0 W/m 0,0 km/h (0 Bft) 100,00 %
08.09.2016 03:28 15,4 C 13,9 C 12,8 C 90 % 2 lf 1011,8 hPa 0,0 l/m 0 min 0 min 0 W/m 0,0 km/h (0 Bft) 100,00 %
08.09.2016 03:30 15,4 C 14,4 C 12,8 C 90 % 2 lf 1011,8 hPa 0,0 l/m 0 min 0 min 0 W/m 0,0 km/h (0 Bft) 100,00 %
08.09.2016 03:32 15,3 C 14,4 C 12,8 C 90 % 2 lf 1011,8 hPa 0,0 l/m 0 min 0 min 0 W/m 0,0 km/h (0 Bft) 100,00 %
08.09.2016 03:34 15,3 C 14,4 C 12,2 C 90 % 3 lf 1011,9 hPa 0,0 l/m 0 min 0 min 0 W/m 0,0 km/h (0 Bft) 95,74 %
08.09.2016 03:36 15,3 C 14,4 C 12,8 C 90 % 3 lf 1011,9 hPa 0,0 l/m 0 min 0 min 0 W/m 0,0 km/h (0 Bft) 96,36 %
08.09.2016 03:38 15,3 C 13,9 C 12,2 C 89 % 3 lf 1011,9 hPa 0,0 l/m 0 min 0 min 0 W/m 0,0 km/h (0 Bft) 98,00 %
08.09.2016 03:40 15,3 C 13,9 C 12,2 C 89 % 3 lf 1011,8 hPa 0,0 l/m 0 min 0 min 0 W/m 0,0 km/h (0 Bft) 97,87 %
08.09.2016 03:42 15,2 C 13,9 C 12,2 C 90 % 3 lf 1011,9 hPa 0,0 l/m 0 min 0 min 0 W/m 0,0 km/h (0 Bft) 94,44 %
08.09.2016 03:44 15,2 C 14,4 C 12,2 C 90 % 3 lf 1011,9 hPa 0,0 l/m 0 min 0 min 0 W/m 0,0 km/h (0 Bft) 100,00 %
08.09.2016 03:46 15,2 C 14,4 C 12,2 C 90 % 3 lf 1011,8 hPa 0,0 l/m 0 min 0 min 0 W/m 0,0 km/h (0 Bft) 98,00 %
08.09.2016 03:48 15,2 C 14,4 C 12,2 C 90 % 3 lf 1011,8 hPa 0,0 l/m 0 min 0 min 0 W/m 0,0 km/h (0 Bft) 97,87 %
08.09.2016 03:50 15,2 C 14,4 C 12,2 C 90 % 3 lf 1011,6 hPa 0,0 l/m 0 min 0 min 0 W/m 0,0 km/h (0 Bft) 93,75 %
08.09.2016 03:52 15,2 C 14,4 C 12,8 C 90 % 3 lf 1011,7 hPa 0,0 l/m 0 min 0 min 0 W/m 0,0 km/h (0 Bft) 95,65 %
08.09.2016 03:54 15,2 C 14,4 C 12,2 C 90 % 3 lf 1011,6 hPa 0,0 l/m 0 min 0 min 0 W/m 0,0 km/h (0 Bft) 97,22 %
08.09.2016 03:56 15,2 C 14,4 C 12,2 C 91 % 3 lf 1011,5 hPa 0,0 l/m 0 min 0 min 0 W/m 0,0 km/h (0 Bft) 94,44 %
08.09.2016 03:58 15,1 C 14,4 C 12,2 C 91 % 3 lf 1011,6 hPa 0,0 l/m 0 min 0 min 0 W/m 0,0 km/h (0 Bft) 95,74 %
08.09.2016 04:00 15,1 C 14,4 C 12,8 C 91 % 3 lf 1011,6 hPa 0,0 l/m 0 min 0 min 0 W/m 0,0 km/h (0 Bft) 94,00 %
08.09.2016 04:02 15,1 C 14,4 C 12,8 C 91 % 3 lf 1011,6 hPa 0,0 l/m 0 min 0 min 0 W/m 0,0 km/h (0 Bft) 100,00 %
08.09.2016 04:04 15,1 C 14,4 C 12,8 C 91 % 3 lf 1011,6 hPa 0,0 l/m 0 min 0 min 0 W/m 0,0 km/h (0 Bft) 94,29 %
08.09.2016 04:06 15,1 C 14,4 C 12,8 C 91 % 3 lf 1011,6 hPa 0,0 l/m 0 min 0 min 0 W/m 0,0 km/h (0 Bft) 97,87 %
08.09.2016 04:08 15,1 C 14,4 C 12,8 C 91 % 3 lf 1011,7 hPa 0,0 l/m 0 min 0 min 0 W/m 0,0 km/h (0 Bft) 96,30 %
08.09.2016 04:10 15,1 C 14,4 C 12,8 C 91 % 3 lf 1011,6 hPa 0,0 l/m 0 min 0 min 0 W/m 0,0 km/h (0 Bft) 96,00 %
08.09.2016 04:12 15,1 C 14,4 C 12,8 C 91 % 6 lf 1011,6 hPa 0,0 l/m 0 min 0 min 0 W/m 0,0 km/h (0 Bft) 89,58 %
08.09.2016 04:14 15,1 C 15,0 C 12,8 C 91 % 6 lf 1011,6 hPa 0,0 l/m 0 min 0 min 0 W/m 0,0 km/h (0 Bft) 85,71 %
08.09.2016 04:16 15,1 C 15,0 C 12,8 C 92 % 7 lf 1011,4 hPa 0,0 l/m 0 min 0 min 0 W/m 0,0 km/h (0 Bft) 92,73 %
08.09.2016 04:18 15,1 C 15,0 C 12,8 C 92 % 7 lf 1011,4 hPa 0,0 l/m 0 min 0 min 0 W/m 4,2 km/h (1 Bft) 91,84 %
08.09.2016 04:20 15,2 C 15,0 C 12,8 C 92 % 7 lf 1011,5 hPa 0,0 l/m 0 min 0 min 0 W/m 4,2 km/h (1 Bft) 89,58 %
08.09.2016 04:22 15,1 C 15,0 C 12,8 C 92 % 7 lf 1011,5 hPa 0,0 l/m 0 min 0 min 0 W/m 4,2 km/h (1 Bft) 89,36 %
08.09.2016 04:24 15,1 C 14,4 C 12,8 C 92 % 8 lf 1011,5 hPa 0,0 l/m 0 min 0 min 0 W/m 2,1 km/h (1 Bft) 91,49 %
08.09.2016 04:26 15,1 C 14,4 C 12,8 C 92 % 8 lf 1011,5 hPa 0,0 l/m 0 min 0 min 0 W/m 0,0 km/h (0 Bft) 91,49 %
08.09.2016 04:28 15,1 C 14,4 C 12,8 C 92 % 8 lf 1011,5 hPa 0,0 l/m 0 min 0 min 0 W/m 2,1 km/h (1 Bft) 85,71 %
08.09.2016 04:30 15,1 C 14,4 C 12,2 C 92 % 8 lf 1011,4 hPa 0,0 l/m 0 min 0 min 0 W/m 2,1 km/h (1 Bft) 90,74 %
08.09.2016 04:32 15,1 C 14,4 C 12,8 C 92 % 8 lf 1011,4 hPa 0,0 l/m 0 min 0 min 0 W/m 0,0 km/h (0 Bft) 92,00 %
08.09.2016 04:34 15,1 C 14,4 C 12,8 C 92 % 9 lf 1011,4 hPa 0,0 l/m 0 min 0 min 0 W/m 4,2 km/h (1 Bft) 91,67 %
08.09.2016 04:36 15,1 C 15,0 C 12,2 C 92 % 9 lf 1011,4 hPa 0,0 l/m 0 min 0 min 0 W/m 4,2 km/h (1 Bft) 91,49 %
08.09.2016 04:38 15,1 C 15,0 C 12,8 C 93 % 9 lf 1011,3 hPa 0,0 l/m 0 min 0 min 0 W/m 2,1 km/h (1 Bft) 91,43 %
08.09.2016 04:40 15,1 C 14,4 C 12,2 C 93 % 9 lf 1011,5 hPa 0,0 l/m 0 min 0 min 0 W/m 2,1 km/h (1 Bft) 90,74 %
08.09.2016 04:42 15,1 C 14,4 C 12,2 C 93 % 9 lf 1011,4 hPa 0,0 l/m 0 min 0 min 0 W/m 2,1 km/h (1 Bft) 90,00 %
08.09.2016 04:44 15,1 C 14,4 C 12,2 C 93 % 9 lf 1011,5 hPa 0,0 l/m 0 min 0 min 0 W/m 0,0 km/h (0 Bft) 91,67 %
08.09.2016 04:46 15,1 C 15,0 C 12,2 C 93 % 9 lf 1011,4 hPa 0,0 l/m 0 min 0 min 0 W/m 0,0 km/h (0 Bft) 94,29 %
08.09.2016 04:48 15,1 C 15,0 C 12,2 C 93 % 10 lf 1011,4 hPa 0,0 l/m 0 min 0 min 0 W/m 2,1 km/h (1 Bft) 93,62 %
08.09.2016 04:50 15,1 C 15,0 C 12,8 C 93 % 10 lf 1011,3 hPa 0,0 l/m 0 min 0 min 0 W/m 4,2 km/h (1 Bft) 90,91 %
08.09.2016 04:52 15,1 C 15,0 C 12,8 C 93 % 10 lf 1011,3 hPa 0,0 l/m 0 min 0 min 0 W/m 4,2 km/h (1 Bft) 91,84 %
08.09.2016 04:54 15,1 C 14,4 C 12,2 C 93 % 10 lf 1011,3 hPa 0,0 l/m 0 min 0 min 0 W/m 2,1 km/h (1 Bft) 91,67 %
08.09.2016 04:56 15,1 C 14,4 C 12,2 C 93 % 11 lf 1011,3 hPa 0,0 l/m 0 min 0 min 0 W/m 2,1 km/h (1 Bft) 93,62 %
08.09.2016 04:58 15,1 C 14,4 C 12,2 C 93 % 11 lf 1011,3 hPa 0,0 l/m 0 min 0 min 0 W/m 2,1 km/h (1 Bft) 97,14 %
08.09.2016 05:00 15,1 C 14,4 C 12,2 C 93 % 11 lf 1011,2 hPa 0,0 l/m 0 min 0 min 0 W/m 4,2 km/h (1 Bft) 96,36 %
08.09.2016 05:02 15,0 C 14,4 C 12,2 C 93 % 11 lf 1011,2 hPa 0,0 l/m 0 min 0 min 0 W/m 2,1 km/h (1 Bft) 95,74 %
08.09.2016 05:04 15,0 C 14,4 C 12,2 C 93 % 12 lf 1011,2 hPa 0,0 l/m 0 min 0 min 0 W/m 0,0 km/h (0 Bft) 100,00 %
08.09.2016 05:06 15,0 C 14,4 C 12,2 C 93 % 12 lf 1011,3 hPa 0,0 l/m 0 min 0 min 0 W/m 0,0 km/h (0 Bft) 100,00 %
08.09.2016 05:08 15,0 C 13,9 C 12,2 C 93 % 12 lf 1011,2 hPa 0,0 l/m 0 min 0 min 0 W/m 2,1 km/h (1 Bft) 94,29 %
08.09.2016 05:10 15,0 C 13,9 C 12,2 C 93 % 12 lf 1011,3 hPa 0,0 l/m 0 min 0 min 0 W/m 0,0 km/h (0 Bft) 98,18 %
08.09.2016 05:12 15,0 C 13,9 C 12,2 C 93 % 12 lf 1011,3 hPa 0,0 l/m 0 min 0 min 0 W/m 0,0 km/h (0 Bft) 98,00 %
08.09.2016 05:14 14,9 C 13,9 C 12,2 C 93 % 12 lf 1011,3 hPa 0,0 l/m 0 min 0 min 0 W/m 0,0 km/h (0 Bft) 100,00 %
08.09.2016 05:16 14,9 C 13,9 C 12,2 C 93 % 12 lf 1011,2 hPa 0,0 l/m 0 min 0 min 0 W/m 2,1 km/h (1 Bft) 100,00 %
08.09.2016 05:18 14,9 C 13,9 C 12,2 C 93 % 12 lf 1011,2 hPa 0,0 l/m 0 min 0 min 0 W/m 4,2 km/h (1 Bft) 96,30 %
08.09.2016 05:20 14,9 C 13,9 C 12,2 C 93 % 13 lf 1011,1 hPa 0,0 l/m 0 min 0 min 0 W/m 2,1 km/h (1 Bft) 100,00 %
08.09.2016 05:22 14,9 C 13,9 C 12,2 C 93 % 13 lf 1011,1 hPa 0,0 l/m 0 min 0 min 0 W/m 0,0 km/h (0 Bft) 100,00 %
08.09.2016 05:24 14,9 C 13,9 C 12,2 C 93 % 13 lf 1011,2 hPa 0,0 l/m 0 min 0 min 0 W/m 2,1 km/h (1 Bft) 98,00 %
08.09.2016 05:26 14,9 C 13,9 C 12,2 C 93 % 13 lf 1011,2 hPa 0,0 l/m 0 min 0 min 0 W/m 0,0 km/h (0 Bft) 100,00 %
08.09.2016 05:28 14,9 C 13,9 C 12,2 C 93 % 13 lf 1011,1 hPa 0,0 l/m 0 min 0 min 0 W/m 0,0 km/h (0 Bft) 100,00 %
08.09.2016 05:30 14,9 C 14,4 C 12,2 C 93 % 13 lf 1011,0 hPa 0,0 l/m 0 min 0 min 0 W/m 0,0 km/h (0 Bft) 97,14 %
08.09.2016 05:32 14,9 C 14,4 C 12,2 C 93 % 13 lf 1011,0 hPa 0,0 l/m 0 min 0 min 0 W/m 0,0 km/h (0 Bft) 100,00 %
08.09.2016 05:34 14,8 C 14,4 C 12,2 C 94 % 14 lf 1010,9 hPa 0,0 l/m 0 min 0 min 0 W/m 0,0 km/h (0 Bft) 100,00 %
08.09.2016 05:36 14,8 C 14,4 C 12,2 C 94 % 14 lf 1010,9 hPa 0,0 l/m 0 min 0 min 0 W/m 0,0 km/h (0 Bft) 100,00 %
08.09.2016 05:38 14,8 C 14,4 C 12,2 C 94 % 14 lf 1010,9 hPa 0,0 l/m 0 min 0 min 0 W/m 4,2 km/h (1 Bft) 100,00 %
08.09.2016 05:40 14,8 C 14,4 C 12,2 C 94 % 14 lf 1010,9 hPa 0,0 l/m 0 min 0 min 0 W/m 6,3 km/h (2 Bft) 100,00 %
08.09.2016 05:42 14,8 C 14,4 C 12,2 C 94 % 14 lf 1010,9 hPa 0,0 l/m 0 min 0 min 0 W/m 6,3 km/h (2 Bft) 100,00 %
08.09.2016 05:44 14,8 C 14,4 C 12,2 C 94 % 14 lf 1010,8 hPa 0,0 l/m 0 min 0 min 0 W/m 6,3 km/h (2 Bft) 100,00 %
08.09.2016 05:46 14,8 C 14,4 C 12,2 C 94 % 14 lf 1010,8 hPa 0,0 l/m 0 min 0 min 0 W/m 8,4 km/h (2 Bft) 100,00 %
08.09.2016 05:48 14,8 C 15,0 C 12,8 C 94 % 14 lf 1010,8 hPa 0,0 l/m 0 min 0 min 0 W/m 10,5 km/h (2 Bft) 100,00 %
08.09.2016 05:50 14,9 C 15,0 C 12,8 C 94 % 14 lf 1010,8 hPa 0,0 l/m 0 min 0 min 0 W/m 10,5 km/h (2 Bft) 100,00 %
08.09.2016 05:52 14,9 C 15,0 C 12,8 C 94 % 15 lf 1010,8 hPa 0,0 l/m 0 min 0 min 0 W/m 8,4 km/h (2 Bft) 100,00 %
08.09.2016 05:54 14,9 C 15,0 C 12,8 C 94 % 14 lf 1010,8 hPa 0,0 l/m 0 min 0 min 0 W/m 4,2 km/h (1 Bft) 98,00 %
08.09.2016 05:56 14,9 C 15,0 C 12,8 C 94 % 14 lf 1010,8 hPa 0,0 l/m 0 min 0 min 0 W/m 6,3 km/h (2 Bft) 100,00 %
08.09.2016 05:58 14,9 C 15,0 C 12,8 C 94 % 14 lf 1010,7 hPa 0,0 l/m 0 min 0 min 0 W/m 8,4 km/h (2 Bft) 97,92 %
08.09.2016 06:00 15,0 C 15,0 C 12,2 C 94 % 14 lf 1010,7 hPa 0,0 l/m 0 min 0 min 0 W/m 6,3 km/h (2 Bft) 100,00 %
08.09.2016 06:02 14,9 C 15,0 C 12,2 C 94 % 15 lf 1010,7 hPa 0,0 l/m 0 min 0 min 0 W/m 6,3 km/h (2 Bft) 100,00 %
08.09.2016 06:04 15,0 C 15,0 C 12,2 C 95 % 15 lf 1010,6 hPa 0,0 l/m 0 min 0 min 0 W/m 6,3 km/h (2 Bft) 94,87 %
08.09.2016 06:06 14,9 C 15,0 C 12,8 C 95 % 15 lf 1010,6 hPa 0,0 l/m 0 min 0 min 0 W/m 4,2 km/h (1 Bft) 97,87 %
08.09.2016 06:08 14,9 C 14,4 C 12,2 C 95 % 14 lf 1010,6 hPa 0,0 l/m 0 min 0 min 0 W/m 4,2 km/h (1 Bft) 100,00 %
08.09.2016 06:10 14,9 C 14,4 C 12,2 C 95 % 15 lf 1010,6 hPa 0,0 l/m 0 min 0 min 0 W/m 6,3 km/h (2 Bft) 100,00 %
08.09.2016 06:12 14,9 C 14,4 C 12,2 C 95 % 15 lf 1010,6 hPa 0,0 l/m 0 min 0 min 0 W/m 4,2 km/h (1 Bft) 97,87 %
08.09.2016 06:14 14,9 C 14,4 C 12,2 C 95 % 15 lf 1010,5 hPa 0,0 l/m 0 min 0 min 0 W/m 4,2 km/h (1 Bft) 97,96 %
08.09.2016 06:16 14,9 C 14,4 C 12,2 C 95 % 15 lf 1010,5 hPa 0,0 l/m 0 min 0 min 0 W/m 4,2 km/h (1 Bft) 100,00 %
08.09.2016 06:18 14,9 C 14,4 C 12,2 C 95 % 15 lf 1010,5 hPa 0,0 l/m 0 min 0 min 0 W/m 4,2 km/h (1 Bft) 96,43 %
08.09.2016 06:20 14,9 C 14,4 C 12,2 C 95 % 15 lf 1010,4 hPa 0,0 l/m 0 min 0 min 0 W/m 4,2 km/h (1 Bft) 97,87 %
08.09.2016 06:22 14,9 C 15,0 C 12,2 C 95 % 15 lf 1010,4 hPa 0,0 l/m 0 min 0 min 0 W/m 6,3 km/h (2 Bft) 95,74 %
08.09.2016 06:24 14,9 C 15,0 C 12,2 C 95 % 15 lf 1010,4 hPa 0,0 l/m 0 min 0 min 0 W/m 8,4 km/h (2 Bft) 97,96 %
08.09.2016 06:26 14,9 C 14,4 C 12,2 C 95 % 15 lf 1010,5 hPa 0,0 l/m 0 min 0 min 0 W/m 6,3 km/h (2 Bft) 100,00 %
08.09.2016 06:28 14,9 C 14,4 C 12,2 C 95 % 15 lf 1010,4 hPa 0,0 l/m 0 min 0 min 0 W/m 4,2 km/h (1 Bft) 96,36 %
08.09.2016 06:30 14,9 C 14,4 C 12,2 C 95 % 15 lf 1010,5 hPa 0,0 l/m 0 min 0 min 0 W/m 6,3 km/h (2 Bft) 98,00 %
08.09.2016 06:32 14,9 C 14,4 C 12,2 C 95 % 15 lf 1010,4 hPa 0,0 l/m 0 min 0 min 0 W/m 6,3 km/h (2 Bft) 97,87 %
08.09.2016 06:34 14,9 C 14,4 C 12,2 C 95 % 15 lf 1010,4 hPa 0,0 l/m 0 min 0 min 0 W/m 6,3 km/h (2 Bft) 95,74 %
08.09.2016 06:36 14,9 C 14,4 C 12,2 C 95 % 15 lf 1010,4 hPa 0,0 l/m 0 min 0 min 0 W/m 4,2 km/h (1 Bft) 100,00 %
08.09.2016 06:38 14,9 C 14,4 C 12,2 C 95 % 15 lf 1010,4 hPa 0,0 l/m 0 min 0 min 0 W/m 6,3 km/h (2 Bft) 97,96 %
08.09.2016 06:40 14,9 C 14,4 C 12,2 C 95 % 15 lf 1010,5 hPa 0,0 l/m 0 min 0 min 0 W/m 4,2 km/h (1 Bft) 92,00 %
08.09.2016 06:42 14,8 C 14,4 C 12,2 C 95 % 15 lf 1010,5 hPa 0,0 l/m 0 min 0 min 0 W/m 6,3 km/h (2 Bft) 97,14 %
08.09.2016 06:44 14,8 C 14,4 C 12,2 C 95 % 15 lf 1010,5 hPa 0,0 l/m 0 min 0 min 0 W/m 10,5 km/h (2 Bft) 96,43 %
08.09.2016 06:46 14,8 C 14,4 C 12,2 C 95 % 15 lf 1010,6 hPa 0,0 l/m 0 min 0 min 0 W/m 6,3 km/h (2 Bft) 98,00 %
08.09.2016 06:48 14,8 C 14,4 C 12,2 C 95 % 15 lf 1010,6 hPa 0,0 l/m 0 min 0 min 1 W/m 6,3 km/h (2 Bft) 97,83 %
08.09.2016 06:50 14,8 C 14,4 C 12,2 C 95 % 15 lf 1010,6 hPa 0,0 l/m 0 min 0 min 5 W/m 8,4 km/h (2 Bft) 100,00 %
08.09.2016 06:52 14,8 C 14,4 C 12,2 C 95 % 15 lf 1010,6 hPa 0,0 l/m 0 min 0 min 5 W/m 10,5 km/h (2 Bft) 98,18 %
08.09.2016 06:54 14,8 C 14,4 C 12,8 C 95 % 15 lf 1010,6 hPa 0,0 l/m 0 min 0 min 5 W/m 10,5 km/h (2 Bft) 100,00 %
08.09.2016 06:56 14,8 C 14,4 C 12,8 C 95 % 15 lf 1010,6 hPa 0,0 l/m 0 min 0 min 6 W/m 10,5 km/h (2 Bft) 100,00 %
08.09.2016 06:58 14,8 C 14,4 C 12,8 C 95 % 15 lf 1010,7 hPa 0,0 l/m 0 min 0 min 7 W/m 8,4 km/h (2 Bft) 96,43 %
08.09.2016 07:00 14,8 C 14,4 C 12,8 C 95 % 15 lf 1010,6 hPa 0,0 l/m 0 min 0 min 7 W/m 10,5 km/h (2 Bft) 93,88 %
08.09.2016 07:02 14,8 C 14,4 C 12,8 C 95 % 15 lf 1010,6 hPa 0,0 l/m 0 min 0 min 9 W/m 10,5 km/h (2 Bft) 100,00 %
08.09.2016 07:04 14,8 C 14,4 C 12,8 C 95 % 15 lf 1010,6 hPa 0,0 l/m 0 min 0 min 9 W/m 10,5 km/h (2 Bft) 95,74 %
08.09.2016 07:06 14,8 C 14,4 C 12,8 C 95 % 15 lf 1010,5 hPa 0,0 l/m 0 min 0 min 11 W/m 12,6 km/h (3 Bft) 97,14 %
08.09.2016 07:08 14,8 C 14,4 C 12,8 C 95 % 15 lf 1010,5 hPa 0,0 l/m 0 min 0 min 11 W/m 12,6 km/h (3 Bft) 96,43 %
08.09.2016 07:10 14,8 C 14,4 C 12,8 C 95 % 15 lf 1010,5 hPa 0,0 l/m 0 min 0 min 11 W/m 10,5 km/h (2 Bft) 96,00 %
08.09.2016 07:12 14,8 C 14,4 C 12,8 C 95 % 15 lf 1010,5 hPa 0,0 l/m 0 min 0 min 13 W/m 12,6 km/h (3 Bft) 97,14 %
08.09.2016 07:14 14,8 C 15,0 C 12,8 C 95 % 15 lf 1010,5 hPa 0,0 l/m 0 min 0 min 14 W/m 16,7 km/h (3 Bft) 94,55 %
08.09.2016 07:16 14,8 C 15,0 C 12,8 C 95 % 15 lf 1010,5 hPa 0,0 l/m 0 min 0 min 16 W/m 14,6 km/h (3 Bft) 90,00 %
08.09.2016 07:18 14,8 C 15,0 C 12,8 C 95 % 15 lf 1010,5 hPa 0,0 l/m 2 min 0 min 19 W/m 18,8 km/h (3 Bft) 97,14 %
08.09.2016 07:20 14,8 C 15,0 C 12,8 C 95 % 15 lf 1010,4 hPa 0,0 l/m 0 min 0 min 20 W/m 10,5 km/h (2 Bft) 94,64 %
08.09.2016 07:22 14,8 C 15,0 C 12,8 C 95 % 15 lf 1010,5 hPa 0,0 l/m 2 min 0 min 26 W/m 10,5 km/h (2 Bft) 94,00 %
08.09.2016 07:24 14,8 C 15,6 C 12,8 C 96 % 15 lf 1010,5 hPa 0,0 l/m 2 min 0 min 28 W/m 10,5 km/h (2 Bft) 94,29 %
08.09.2016 07:26 14,9 C 15,6 C 12,8 C 96 % 15 lf 1010,4 hPa 0,0 l/m 2 min 0 min 32 W/m 8,4 km/h (2 Bft) 94,55 %
08.09.2016 07:28 14,9 C 15,6 C 12,8 C 96 % 15 lf 1010,4 hPa 0,0 l/m 2 min 0 min 35 W/m 16,7 km/h (3 Bft) 94,00 %
08.09.2016 07:30 14,9 C 15,6 C 13,3 C 96 % 14 lf 1010,4 hPa 0,0 l/m 2 min 0 min 39 W/m 16,7 km/h (3 Bft) 88,57 %
08.09.2016 07:32 15,0 C 15,6 C 13,3 C 96 % 13 lf 1010,5 hPa 0,0 l/m 2 min 0 min 42 W/m 12,6 km/h (3 Bft) 89,29 %
08.09.2016 07:34 15,1 C 15,6 C 13,3 C 96 % 12 lf 1010,5 hPa 0,0 l/m 2 min 0 min 45 W/m 12,6 km/h (3 Bft) 93,62 %
08.09.2016 07:36 15,1 C 15,6 C 13,3 C 96 % 10 lf 1010,5 hPa 0,0 l/m 2 min 0 min 49 W/m 10,5 km/h (2 Bft) 91,84 %
08.09.2016 07:38 15,1 C 15,6 C 13,3 C 96 % 8 lf 1010,5 hPa 0,0 l/m 2 min 0 min 54 W/m 12,6 km/h (3 Bft) 91,43 %
08.09.2016 07:40 15,2 C 15,6 C 13,3 C 96 % 6 lf 1010,5 hPa 0,0 l/m 2 min 0 min 58 W/m 12,6 km/h (3 Bft) 94,64 %
08.09.2016 07:42 15,2 C 15,6 C 13,3 C 96 % 4 lf 1010,5 hPa 0,0 l/m 2 min 0 min 62 W/m 12,6 km/h (3 Bft) 94,00 %
08.09.2016 07:44 15,2 C 15,6 C 13,3 C 96 % 4 lf 1010,5 hPa 0,0 l/m 2 min 0 min 66 W/m 10,5 km/h (2 Bft) 85,71 %
08.09.2016 07:46 15,2 C 15,6 C 13,3 C 96 % 4 lf 1010,5 hPa 0,0 l/m 2 min 0 min 70 W/m 16,7 km/h (3 Bft) 94,64 %
08.09.2016 07:48 15,2 C 15,6 C 13,3 C 96 % 4 lf 1010,5 hPa 0,0 l/m 2 min 0 min 75 W/m 16,7 km/h (3 Bft) 93,88 %
08.09.2016 07:50 15,3 C 16,1 C 13,3 C 96 % 4 lf 1010,6 hPa 0,0 l/m 2 min 0 min 78 W/m 8,4 km/h (2 Bft) 91,43 %
08.09.2016 07:52 15,3 C 16,1 C 13,3 C 96 % 3 lf 1010,6 hPa 0,0 l/m 2 min 0 min 83 W/m 14,6 km/h (3 Bft) 94,64 %
08.09.2016 07:54 15,3 C 16,1 C 13,3 C 96 % 3 lf 1010,6 hPa 0,0 l/m 2 min 0 min 88 W/m 12,6 km/h (3 Bft) 96,00 %
08.09.2016 07:56 15,3 C 16,1 C 13,3 C 96 % 3 lf 1010,5 hPa 0,0 l/m 2 min 0 min 92 W/m 14,6 km/h (3 Bft) 91,43 %
08.09.2016 07:58 15,4 C 16,1 C 13,9 C 96 % 3 lf 1010,5 hPa 0,0 l/m 2 min 0 min 98 W/m 18,8 km/h (3 Bft) 96,23 %
08.09.2016 08:00 15,4 C 16,1 C 13,9 C 96 % 3 lf 1010,5 hPa 0,0 l/m 2 min 0 min 103 W/m 16,7 km/h (3 Bft) 95,92 %
08.09.2016 08:02 15,4 C 16,1 C 13,9 C 96 % 3 lf 1010,5 hPa 0,0 l/m 2 min 0 min 110 W/m 10,5 km/h (2 Bft) 94,00 %
08.09.2016 08:04 15,5 C 16,1 C 13,9 C 96 % 3 lf 1010,5 hPa 0,0 l/m 2 min 0 min 115 W/m 14,6 km/h (3 Bft) 97,14 %
08.09.2016 08:06 15,5 C 16,7 C 13,9 C 96 % 3 lf 1010,5 hPa 0,0 l/m 2 min 0 min 121 W/m 10,5 km/h (2 Bft) 98,21 %
08.09.2016 08:08 15,6 C 16,7 C 13,9 C 96 % 3 lf 1010,5 hPa 0,0 l/m 2 min 0 min 128 W/m 12,6 km/h (3 Bft) 92,00 %
08.09.2016 08:10 15,6 C 16,7 C 13,9 C 96 % 2 lf 1010,4 hPa 0,0 l/m 2 min 0 min 134 W/m 18,8 km/h (3 Bft) 97,14 %
08.09.2016 08:12 15,7 C 16,7 C 14,4 C 96 % 2 lf 1010,4 hPa 0,0 l/m 2 min 0 min 141 W/m 14,6 km/h (3 Bft) 94,55 %
08.09.2016 08:14 15,7 C 16,7 C 14,4 C 96 % 2 lf 1010,4 hPa 0,0 l/m 2 min 0 min 147 W/m 12,6 km/h (3 Bft) 95,74 %
08.09.2016 08:16 15,7 C 16,7 C 14,4 C 96 % 2 lf 1010,3 hPa 0,0 l/m 2 min 0 min 152 W/m 18,8 km/h (3 Bft) 94,00 %
08.09.2016 08:18 15,8 C 16,7 C 14,4 C 96 % 2 lf 1010,3 hPa 0,0 l/m 2 min 0 min 161 W/m 14,6 km/h (3 Bft) 97,14 %
08.09.2016 08:20 15,8 C 16,7 C 14,4 C 96 % 2 lf 1010,3 hPa 0,0 l/m 2 min 0 min 167 W/m 14,6 km/h (3 Bft) 94,64 %
08.09.2016 08:22 15,9 C 17,2 C 15,0 C 96 % 2 lf 1010,3 hPa 0,0 l/m 2 min 0 min 174 W/m 16,7 km/h (3 Bft) 95,92 %
08.09.2016 08:24 15,9 C 17,2 C 15,0 C 96 % 2 lf 1010,3 hPa 0,0 l/m 2 min 0 min 179 W/m 14,6 km/h (3 Bft) 94,29 %
08.09.2016 08:26 16,0 C 17,2 C 15,0 C 96 % 2 lf 1010,3 hPa 0,0 l/m 2 min 0 min 185 W/m 12,6 km/h (3 Bft) 91,07 %
08.09.2016 08:28 16,1 C 17,2 C 15,0 C 96 % 2 lf 1010,4 hPa 0,0 l/m 2 min 0 min 192 W/m 14,6 km/h (3 Bft) 98,00 %
08.09.2016 08:30 16,1 C 17,2 C 15,0 C 96 % 2 lf 1010,3 hPa 0,0 l/m 2 min 0 min 198 W/m 18,8 km/h (3 Bft) 94,29 %
08.09.2016 08:32 16,2 C 17,2 C 15,0 C 96 % 2 lf 1010,3 hPa 0,0 l/m 2 min 0 min 204 W/m 16,7 km/h (3 Bft) 98,21 %
08.09.2016 08:34 16,2 C 17,8 C 15,0 C 96 % 2 lf 1010,3 hPa 0,0 l/m 2 min 0 min 210 W/m 14,6 km/h (3 Bft) 97,96 %
08.09.2016 08:36 16,3 C 18,3 C 15,0 C 96 % 1 lf 1010,3 hPa 0,0 l/m 2 min 0 min 216 W/m 16,7 km/h (3 Bft) 94,29 %
08.09.2016 08:38 16,3 C 19,4 C 15,6 C 96 % 1 lf 1010,3 hPa 0,0 l/m 2 min 0 min 221 W/m 20,9 km/h (4 Bft) 98,21 %
08.09.2016 08:40 16,4 C 20,0 C 15,6 C 96 % 1 lf 1010,3 hPa 0,0 l/m 2 min 0 min 228 W/m 14,6 km/h (3 Bft) 98,00 %
08.09.2016 08:42 16,5 C 20,6 C 15,6 C 96 % 1 lf 1010,3 hPa 0,0 l/m 2 min 0 min 233 W/m 16,7 km/h (3 Bft) 97,14 %
08.09.2016 08:44 16,6 C 21,7 C 15,6 C 96 % 1 lf 1010,3 hPa 0,0 l/m 2 min 0 min 238 W/m 14,6 km/h (3 Bft) 96,43 %
08.09.2016 08:46 16,7 C 21,1 C 15,6 C 95 % 1 lf 1010,3 hPa 0,0 l/m 2 min 0 min 244 W/m 18,8 km/h (3 Bft) 97,96 %
08.09.2016 08:48 16,8 C 21,1 C 15,6 C 96 % 1 lf 1010,3 hPa 0,0 l/m 2 min 0 min 249 W/m 18,8 km/h (3 Bft) 100,00 %
08.09.2016 08:50 16,9 C 21,7 C 16,1 C 95 % 1 lf 1010,3 hPa 0,0 l/m 2 min 0 min 254 W/m 16,7 km/h (3 Bft) 98,21 %
08.09.2016 08:52 17,1 C 21,7 C 16,1 C 95 % 1 lf 1010,3 hPa 0,0 l/m 2 min 0 min 261 W/m 14,6 km/h (3 Bft) 98,00 %
08.09.2016 08:54 17,2 C 22,2 C 16,1 C 95 % 1 lf 1010,3 hPa 0,0 l/m 2 min 0 min 266 W/m 16,7 km/h (3 Bft) 100,00 %
08.09.2016 08:56 17,3 C 21,7 C 16,1 C 95 % 0 lf 1010,3 hPa 0,0 l/m 2 min 0 min 271 W/m 16,7 km/h (3 Bft) 100,00 %
08.09.2016 08:58 17,4 C 22,8 C 16,1 C 94 % 0 lf 1010,3 hPa 0,0 l/m 2 min 0 min 277 W/m 12,6 km/h (3 Bft) 100,00 %
08.09.2016 09:00 17,6 C 22,8 C 16,7 C 94 % 0 lf 1010,3 hPa 0,0 l/m 2 min 0 min 282 W/m 16,7 km/h (3 Bft) 100,00 %
08.09.2016 09:02 17,7 C 22,8 C 16,7 C 94 % 0 lf 1010,2 hPa 0,0 l/m 2 min 0 min 289 W/m 12,6 km/h (3 Bft) 100,00 %
08.09.2016 09:04 17,8 C 23,3 C 16,7 C 93 % 0 lf 1010,2 hPa 0,0 l/m 2 min 0 min 295 W/m 14,6 km/h (3 Bft) 96,43 %
08.09.2016 09:06 17,9 C 22,8 C 16,7 C 93 % 0 lf 1010,2 hPa 0,0 l/m 2 min 0 min 300 W/m 16,7 km/h (3 Bft) 98,00 %
08.09.2016 09:08 18,1 C 23,9 C 16,7 C 92 % 0 lf 1010,2 hPa 0,0 l/m 2 min 0 min 306 W/m 12,6 km/h (3 Bft) 97,14 %
08.09.2016 09:10 18,2 C 23,9 C 17,2 C 92 % 0 lf 1010,2 hPa 0,0 l/m 2 min 0 min 310 W/m 16,7 km/h (3 Bft) 100,00 %
08.09.2016 09:12 18,3 C 23,3 C 17,2 C 91 % 0 lf 1010,3 hPa 0,0 l/m 2 min 0 min 316 W/m 12,6 km/h (3 Bft) 100,00 %
08.09.2016 09:14 18,4 C 23,9 C 17,2 C 91 % 0 lf 1010,3 hPa 0,0 l/m 2 min 0 min 322 W/m 10,5 km/h (2 Bft) 97,14 %
08.09.2016 09:16 18,6 C 25,0 C 17,2 C 90 % 0 lf 1010,3 hPa 0,0 l/m 2 min 0 min 327 W/m 14,6 km/h (3 Bft) 98,21 %
08.09.2016 09:18 18,7 C 24,4 C 17,2 C 90 % 0 lf 1010,3 hPa 0,0 l/m 2 min 0 min 333 W/m 12,6 km/h (3 Bft) 100,00 %
08.09.2016 09:20 18,8 C 24,4 C 17,2 C 90 % 0 lf 1010,3 hPa 0,0 l/m 2 min 0 min 338 W/m 10,5 km/h (2 Bft) 100,00 %
08.09.2016 09:22 18,9 C 24,4 C 17,8 C 89 % 0 lf 1010,3 hPa 0,0 l/m 2 min 0 min 343 W/m 10,5 km/h (2 Bft) 100,00 %
08.09.2016 09:24 19,1 C 25,0 C 17,8 C 89 % 0 lf 1010,2 hPa 0,0 l/m 2 min 0 min 349 W/m 12,6 km/h (3 Bft) 98,00 %
08.09.2016 09:26 19,2 C 25,0 C 17,8 C 88 % 0 lf 1010,2 hPa 0,0 l/m 2 min 0 min 353 W/m 12,6 km/h (3 Bft) 100,00 %
08.09.2016 09:28 19,3 C 26,7 C 17,8 C 87 % 0 lf 1010,2 hPa 0,0 l/m 2 min 0 min 359 W/m 12,6 km/h (3 Bft) 100,00 %
08.09.2016 09:30 19,4 C 26,7 C 17,8 C 87 % 0 lf 1010,2 hPa 0,0 l/m 2 min 0 min 365 W/m 10,5 km/h (2 Bft) 97,87 %
08.09.2016 09:32 19,5 C 26,1 C 17,8 C 87 % 0 lf 1010,3 hPa 0,0 l/m 2 min 0 min 370 W/m 8,4 km/h (2 Bft) 97,96 %
08.09.2016 09:34 19,7 C 26,7 C 18,3 C 86 % 0 lf 1010,2 hPa 0,0 l/m 2 min 0 min 375 W/m 10,5 km/h (2 Bft) 97,22 %
08.09.2016 09:36 19,8 C 26,1 C 18,3 C 86 % 0 lf 1010,2 hPa 0,0 l/m 2 min 0 min 380 W/m 16,7 km/h (3 Bft) 100,00 %
08.09.2016 09:38 19,9 C 26,7 C 18,3 C 85 % 0 lf 1010,2 hPa 0,0 l/m 2 min 0 min 387 W/m 8,4 km/h (2 Bft) 100,00 %
08.09.2016 09:40 20,0 C 26,7 C 18,3 C 85 % 0 lf 1010,2 hPa 0,0 l/m 2 min 0 min 393 W/m 8,4 km/h (2 Bft) 97,14 %
08.09.2016 09:42 20,2 C 26,1 C 18,3 C 85 % 0 lf 1010,2 hPa 0,0 l/m 2 min 0 min 397 W/m 14,6 km/h (3 Bft) 98,21 %
08.09.2016 09:44 20,3 C 27,8 C 18,3 C 84 % 0 lf 1010,2 hPa 0,0 l/m 2 min 0 min 402 W/m 8,4 km/h (2 Bft) 100,00 %
08.09.2016 09:46 20,4 C 27,2 C 18,9 C 84 % 0 lf 1010,2 hPa 0,0 l/m 2 min 0 min 407 W/m 8,4 km/h (2 Bft) 100,00 %
08.09.2016 09:48 20,5 C 26,1 C 19,4 C 84 % 0 lf 1010,2 hPa 0,0 l/m 2 min 0 min 411 W/m 10,5 km/h (2 Bft) 96,43 %
08.09.2016 09:50 20,7 C 26,1 C 20,0 C 83 % 0 lf 1010,2 hPa 0,0 l/m 2 min 0 min 415 W/m 10,5 km/h (2 Bft) 98,00 %
08.09.2016 09:52 20,8 C 27,8 C 20,6 C 82 % 0 lf 1010,2 hPa 0,0 l/m 2 min 0 min 421 W/m 10,5 km/h (2 Bft) 97,87 %
08.09.2016 09:54 20,9 C 27,2 C 20,6 C 82 % 0 lf 1010,3 hPa 0,0 l/m 2 min 0 min 425 W/m 10,5 km/h (2 Bft) 100,00 %
08.09.2016 09:56 21,0 C 27,2 C 20,0 C 81 % 0 lf 1010,2 hPa 0,0 l/m 2 min 0 min 431 W/m 12,6 km/h (3 Bft) 92,73 %
08.09.2016 09:58 21,1 C 26,1 C 20,6 C 81 % 0 lf 1010,2 hPa 0,0 l/m 2 min 0 min 434 W/m 16,7 km/h (3 Bft) 98,00 %
08.09.2016 10:00 21,2 C 26,7 C 20,6 C 80 % 0 lf 1010,2 hPa 0,0 l/m 2 min 0 min 441 W/m 14,6 km/h (3 Bft) 97,14 %
08.09.2016 10:02 21,3 C 26,7 C 21,1 C 80 % 0 lf 1010,2 hPa 0,0 l/m 2 min 0 min 445 W/m 6,3 km/h (2 Bft) 94,64 %
08.09.2016 10:04 21,4 C 28,3 C 22,2 C 80 % 0 lf 1010,2 hPa 0,0 l/m 2 min 0 min 450 W/m 8,4 km/h (2 Bft) 98,00 %
08.09.2016 10:06 21,6 C 26,7 C 23,9 C 79 % 0 lf 1010,2 hPa 0,0 l/m 2 min 0 min 455 W/m 14,6 km/h (3 Bft) 94,29 %
08.09.2016 10:08 21,7 C 27,2 C 24,4 C 78 % 0 lf 1010,2 hPa 0,0 l/m 2 min 0 min 460 W/m 14,6 km/h (3 Bft) 92,73 %
08.09.2016 10:10 21,7 C 28,3 C 25,0 C 78 % 0 lf 1010,2 hPa 0,0 l/m 2 min 0 min 464 W/m 14,6 km/h (3 Bft) 94,00 %
08.09.2016 10:12 21,8 C 29,4 C 25,6 C 77 % 0 lf 1010,2 hPa 0,0 l/m 2 min 0 min 470 W/m 8,4 km/h (2 Bft) 91,43 %
08.09.2016 10:14 21,9 C 31,7 C 25,6 C 77 % 0 lf 1010,2 hPa 0,0 l/m 2 min 0 min 475 W/m 10,5 km/h (2 Bft) 94,64 %
08.09.2016 10:16 22,0 C 28,9 C 25,6 C 76 % 0 lf 1010,2 hPa 0,0 l/m 2 min 0 min 480 W/m 12,6 km/h (3 Bft) 94,00 %
08.09.2016 10:18 22,1 C 28,3 C 25,6 C 75 % 0 lf 1010,2 hPa 0,0 l/m 2 min 0 min 485 W/m 16,7 km/h (3 Bft) 97,14 %
08.09.2016 10:20 22,2 C 27,8 C 26,1 C 75 % 0 lf 1010,2 hPa 0,0 l/m 2 min 0 min 489 W/m 10,5 km/h (2 Bft) 92,73 %
08.09.2016 10:22 22,3 C 28,3 C 26,1 C 74 % 0 lf 1010,2 hPa 0,0 l/m 2 min 0 min 493 W/m 14,6 km/h (3 Bft) 92,00 %
08.09.2016 10:24 22,4 C 27,2 C 26,7 C 73 % 0 lf 1010,2 hPa 0,0 l/m 2 min 0 min 497 W/m 14,6 km/h (3 Bft) 88,57 %
08.09.2016 10:26 22,6 C 28,3 C 27,2 C 74 % 0 lf 1010,3 hPa 0,0 l/m 2 min 0 min 502 W/m 10,5 km/h (2 Bft) 92,86 %
08.09.2016 10:28 22,7 C 27,8 C 27,2 C 73 % 0 lf 1010,3 hPa 0,0 l/m 2 min 0 min 506 W/m 16,7 km/h (3 Bft) 94,00 %
08.09.2016 10:30 22,8 C 30,0 C 26,7 C 73 % 0 lf 1010,3 hPa 0,0 l/m 2 min 0 min 510 W/m 16,7 km/h (3 Bft) 85,71 %
08.09.2016 10:32 22,9 C 28,9 C 27,2 C 72 % 0 lf 1010,2 hPa 0,0 l/m 2 min 0 min 514 W/m 14,6 km/h (3 Bft) 94,55 %
08.09.2016 10:34 22,9 C 31,1 C 26,1 C 71 % 0 lf 1010,3 hPa 0,0 l/m 2 min 0 min 519 W/m 10,5 km/h (2 Bft) 92,00 %
08.09.2016 10:36 23,0 C 32,2 C 26,1 C 72 % 0 lf 1010,2 hPa 0,0 l/m 2 min 0 min 523 W/m 6,3 km/h (2 Bft) 95,74 %
08.09.2016 10:38 23,1 C 30,6 C 26,7 C 72 % 0 lf 1010,3 hPa 0,0 l/m 2 min 0 min 526 W/m 12,6 km/h (3 Bft) 95,74 %
08.09.2016 10:40 23,2 C 30,6 C 27,2 C 72 % 0 lf 1010,3 hPa 0,0 l/m 2 min 0 min 530 W/m 12,6 km/h (3 Bft) 94,29 %
08.09.2016 10:42 23,3 C 30,6 C 27,2 C 72 % 0 lf 1010,3 hPa 0,0 l/m 2 min 0 min 535 W/m 10,5 km/h (2 Bft) 96,43 %
08.09.2016 10:44 23,4 C 29,4 C 27,2 C 71 % 0 lf 1010,3 hPa 0,0 l/m 2 min 0 min 540 W/m 12,6 km/h (3 Bft) 95,65 %
08.09.2016 10:46 23,5 C 31,1 C 26,1 C 71 % 0 lf 1010,3 hPa 0,0 l/m 2 min 0 min 544 W/m 6,3 km/h (2 Bft) 94,00 %
08.09.2016 10:48 23,6 C 32,2 C 25,0 C 70 % 0 lf 1010,3 hPa 0,0 l/m 2 min 0 min 547 W/m 8,4 km/h (2 Bft) 93,62 %
08.09.2016 10:50 23,7 C 33,3 C 24,4 C 71 % 0 lf 1010,3 hPa 0,0 l/m 2 min 0 min 550 W/m 6,3 km/h (2 Bft) 91,49 %
08.09.2016 10:52 23,8 C 31,7 C 24,4 C 70 % 0 lf 1010,2 hPa 0,0 l/m 2 min 0 min 554 W/m 12,6 km/h (3 Bft) 93,62 %
08.09.2016 10:54 23,9 C 30,6 C 25,0 C 69 % 0 lf 1010,2 hPa 0,0 l/m 2 min 0 min 558 W/m 10,5 km/h (2 Bft) 93,48 %
08.09.2016 10:56 24,1 C 29,4 C 26,1 C 68 % 0 lf 1010,2 hPa 0,0 l/m 2 min 0 min 562 W/m 12,6 km/h (3 Bft) 91,49 %
08.09.2016 10:58 24,2 C 30,6 C 27,8 C 68 % 0 lf 1010,1 hPa 0,0 l/m 2 min 0 min 567 W/m 10,5 km/h (2 Bft) 93,62 %
08.09.2016 11:00 24,3 C 32,2 C 27,8 C 68 % 0 lf 1010,1 hPa 0,0 l/m 2 min 0 min 570 W/m 20,9 km/h (4 Bft) 95,74 %
08.09.2016 11:02 24,3 C 32,2 C 27,8 C 67 % 0 lf 1010,1 hPa 0,0 l/m 2 min 0 min 576 W/m 18,8 km/h (3 Bft) 95,74 %
08.09.2016 11:04 24,4 C 32,8 C 28,3 C 67 % 0 lf 1010,1 hPa 0,0 l/m 2 min 0 min 577 W/m 10,5 km/h (2 Bft) 97,87 %
08.09.2016 11:06 24,4 C 32,2 C 28,3 C 65 % 0 lf 1010,0 hPa 0,0 l/m 2 min 0 min 582 W/m 16,7 km/h (3 Bft) 97,83 %
08.09.2016 11:08 24,5 C 32,8 C 27,8 C 65 % 0 lf 1010,0 hPa 0,0 l/m 2 min 0 min 588 W/m 14,6 km/h (3 Bft) 95,74 %
08.09.2016 11:10 24,6 C 33,3 C 27,8 C 64 % 0 lf 1010,0 hPa 0,0 l/m 2 min 0 min 591 W/m 14,6 km/h (3 Bft) 97,14 %
08.09.2016 11:12 24,6 C 35,0 C 27,8 C 65 % 0 lf 1010,0 hPa 0,0 l/m 2 min 0 min 595 W/m 12,6 km/h (3 Bft) 96,23 %
08.09.2016 11:14 24,7 C 33,3 C 28,9 C 65 % 0 lf 1010,0 hPa 0,0 l/m 2 min 0 min 599 W/m 12,6 km/h (3 Bft) 97,56 %
08.09.2016 11:16 24,8 C 35,0 C 29,4 C 65 % 0 lf 1010,0 hPa 0,0 l/m 2 min 0 min 603 W/m 10,5 km/h (2 Bft) 93,62 %
08.09.2016 11:18 24,8 C 36,7 C 30,0 C 65 % 0 lf 1010,0 hPa 0,0 l/m 2 min 0 min 608 W/m 8,4 km/h (2 Bft) 97,87 %
08.09.2016 11:20 24,9 C 32,8 C 30,6 C 65 % 0 lf 1010,0 hPa 0,0 l/m 2 min 0 min 612 W/m 16,7 km/h (3 Bft) 97,83 %
08.09.2016 11:22 25,1 C 32,8 C 30,6 C 65 % 0 lf 1010,1 hPa 0,0 l/m 2 min 0 min 614 W/m 14,6 km/h (3 Bft) 98,11 %
08.09.2016 11:24 25,1 C 31,7 C 30,0 C 64 % 0 lf 1010,2 hPa 0,0 l/m 2 min 0 min 614 W/m 25,1 km/h (4 Bft) 95,74 %
08.09.2016 11:26 25,2 C 31,1 C 30,0 C 64 % 0 lf 1010,2 hPa 0,0 l/m 2 min 0 min 617 W/m 25,1 km/h (4 Bft) 97,87 %
08.09.2016 11:28 25,3 C 32,2 C 30,0 C 64 % 0 lf 1010,2 hPa 0,0 l/m 2 min 0 min 618 W/m 14,6 km/h (3 Bft) 97,87 %
08.09.2016 11:30 25,3 C 33,9 C 30,0 C 63 % 0 lf 1010,2 hPa 0,0 l/m 2 min 0 min 624 W/m 12,6 km/h (3 Bft) 97,87 %
08.09.2016 11:32 25,4 C 35,6 C 30,6 C 64 % 0 lf 1010,1 hPa 0,0 l/m 2 min 0 min 624 W/m 10,5 km/h (2 Bft) 95,00 %
08.09.2016 11:34 25,5 C 35,0 C 31,1 C 64 % 0 lf 1010,1 hPa 0,0 l/m 2 min 0 min 631 W/m 12,6 km/h (3 Bft) 97,87 %
08.09.2016 11:36 25,6 C 34,4 C 31,1 C 65 % 0 lf 1010,1 hPa 0,0 l/m 2 min 0 min 631 W/m 12,6 km/h (3 Bft) 97,87 %
08.09.2016 11:38 25,6 C 33,3 C 30,6 C 64 % 0 lf 1010,2 hPa 0,0 l/m 2 min 0 min 634 W/m 18,8 km/h (3 Bft) 93,62 %
08.09.2016 11:40 25,7 C 34,4 C 30,0 C 63 % 0 lf 1010,0 hPa 0,0 l/m 2 min 0 min 638 W/m 12,6 km/h (3 Bft) 96,23 %
08.09.2016 11:42 25,7 C 33,3 C 30,6 C 63 % 0 lf 1010,0 hPa 0,0 l/m 2 min 0 min 643 W/m 16,7 km/h (3 Bft) 97,83 %
08.09.2016 11:44 25,8 C 33,9 C 30,6 C 63 % 0 lf 1010,0 hPa 0,0 l/m 2 min 0 min 645 W/m 14,6 km/h (3 Bft) 97,56 %
08.09.2016 11:46 25,8 C 35,0 C 30,6 C 63 % 0 lf 1009,9 hPa 0,0 l/m 2 min 0 min 651 W/m 10,5 km/h (2 Bft) 97,87 %
08.09.2016 11:48 25,9 C 35,0 C 30,6 C 63 % 0 lf 1010,0 hPa 0,0 l/m 2 min 0 min 650 W/m 14,6 km/h (3 Bft) 96,23 %
08.09.2016 11:50 25,9 C 33,9 C 30,6 C 62 % 0 lf 1009,9 hPa 0,0 l/m 2 min 0 min 654 W/m 23,0 km/h (4 Bft) 95,74 %
08.09.2016 11:52 26,1 C 34,4 C 31,1 C 62 % 0 lf 1009,9 hPa 0,0 l/m 2 min 0 min 658 W/m 14,6 km/h (3 Bft) 100,00 %
08.09.2016 11:54 26,1 C 34,4 C 30,6 C 62 % 0 lf 1009,9 hPa 0,0 l/m 2 min 0 min 656 W/m 16,7 km/h (3 Bft) 100,00 %
08.09.2016 11:56 26,2 C 35,6 C 31,1 C 62 % 0 lf 1009,9 hPa 0,0 l/m 2 min 0 min 659 W/m 8,4 km/h (2 Bft) 100,00 %
08.09.2016 11:58 26,2 C 32,2 C 31,1 C 61 % 0 lf 1009,9 hPa 0,0 l/m 2 min 0 min 660 W/m 25,1 km/h (4 Bft) 100,00 %
08.09.2016 12:00 26,3 C 32,2 C 30,6 C 61 % 0 lf 1009,9 hPa 0,0 l/m 2 min 0 min 662 W/m 20,9 km/h (4 Bft) 95,12 %
08.09.2016 12:02 26,3 C 33,3 C 31,1 C 62 % 0 lf 1009,8 hPa 0,0 l/m 2 min 0 min 675 W/m 12,6 km/h (3 Bft) 95,74 %
08.09.2016 12:06 26,4 C 36,1 C 31,1 C 62 % 0 lf 1009,8 hPa 0,0 l/m 2 min 0 min 675 W/m 12,6 km/h (3 Bft) 97,00 %
08.09.2016 12:08 26,5 C 36,7 C 30,6 C 61 % 0 lf 1009,8 hPa 0,0 l/m 2 min 0 min 678 W/m 14,6 km/h (3 Bft) 100,00 %
08.09.2016 12:10 26,6 C 37,2 C 31,1 C 62 % 0 lf 1009,8 hPa 0,0 l/m 2 min 0 min 684 W/m 14,6 km/h (3 Bft) 100,00 %
08.09.2016 12:12 26,6 C 36,1 C 30,6 C 61 % 0 lf 1009,8 hPa 0,0 l/m 2 min 0 min 681 W/m 14,6 km/h (3 Bft) 100,00 %
08.09.2016 12:14 26,7 C 35,0 C 30,6 C 60 % 0 lf 1009,8 hPa 0,0 l/m 2 min 0 min 684 W/m 14,6 km/h (3 Bft) 100,00 %
08.09.2016 12:16 26,7 C 35,0 C 31,7 C 61 % 0 lf 1009,8 hPa 0,0 l/m 2 min 0 min 685 W/m 16,7 km/h (3 Bft) 97,87 %
08.09.2016 12:18 26,8 C 36,1 C 30,6 C 60 % 0 lf 1009,8 hPa 0,0 l/m 2 min 0 min 689 W/m 20,9 km/h (4 Bft) 97,83 %
08.09.2016 12:20 26,8 C 35,6 C 30,0 C 60 % 0 lf 1009,8 hPa 0,0 l/m 2 min 0 min 690 W/m 18,8 km/h (3 Bft) 97,87 %
08.09.2016 12:22 26,7 C 35,6 C 30,0 C 59 % 0 lf 1009,8 hPa 0,0 l/m 2 min 0 min 687 W/m 18,8 km/h (3 Bft) 100,00 %
08.09.2016 12:24 26,7 C 36,7 C 30,6 C 60 % 0 lf 1009,7 hPa 0,0 l/m 2 min 0 min 688 W/m 10,5 km/h (2 Bft) 97,87 %
08.09.2016 12:26 26,8 C 37,8 C 31,1 C 60 % 0 lf 1009,7 hPa 0,0 l/m 2 min 0 min 692 W/m 8,4 km/h (2 Bft) 97,87 %
08.09.2016 12:28 26,8 C 36,7 C 31,7 C 60 % 0 lf 1009,7 hPa 0,0 l/m 2 min 0 min 694 W/m 12,6 km/h (3 Bft) 93,62 %
08.09.2016 12:30 26,9 C 37,2 C 31,7 C 61 % 0 lf 1009,7 hPa 0,0 l/m 2 min 0 min 695 W/m 8,4 km/h (2 Bft) 97,83 %
08.09.2016 12:32 27,0 C 37,8 C 31,1 C 60 % 0 lf 1009,7 hPa 0,0 l/m 2 min 0 min 693 W/m 18,8 km/h (3 Bft) 95,74 %
08.09.2016 12:34 27,1 C 37,2 C 30,0 C 59 % 0 lf 1009,9 hPa 0,0 l/m 2 min 0 min 699 W/m 20,9 km/h (4 Bft) 95,74 %
08.09.2016 12:36 27,2 C 37,2 C 29,4 C 59 % 0 lf 1009,9 hPa 0,0 l/m 2 min 0 min 700 W/m 20,9 km/h (4 Bft) 95,74 %
08.09.2016 12:38 27,2 C 35,6 C 28,9 C 59 % 0 lf 1009,9 hPa 0,0 l/m 2 min 0 min 699 W/m 14,6 km/h (3 Bft) 95,74 %
08.09.2016 12:40 27,3 C 35,6 C 27,8 C 59 % 0 lf 1009,8 hPa 0,0 l/m 2 min 0 min 698 W/m 12,6 km/h (3 Bft) 95,74 %
08.09.2016 12:42 27,4 C 36,1 C 27,8 C 59 % 0 lf 1009,8 hPa 0,0 l/m 2 min 0 min 698 W/m 20,9 km/h (4 Bft) 97,83 %
08.09.2016 12:44 27,5 C 35,6 C 27,2 C 59 % 0 lf 1009,8 hPa 0,0 l/m 2 min 0 min 692 W/m 16,7 km/h (3 Bft) 93,62 %
08.09.2016 12:46 27,5 C 36,1 C 27,2 C 58 % 0 lf 1009,8 hPa 0,0 l/m 2 min 0 min 699 W/m 25,1 km/h (4 Bft) 91,49 %
08.09.2016 12:48 27,6 C 36,7 C 27,2 C 59 % 0 lf 1009,8 hPa 0,0 l/m 2 min 0 min 704 W/m 23,0 km/h (4 Bft) 95,74 %
08.09.2016 12:50 27,6 C 37,2 C 27,2 C 58 % 0 lf 1009,9 hPa 0,0 l/m 2 min 0 min 708 W/m 20,9 km/h (4 Bft) 95,74 %
08.09.2016 12:52 27,7 C 36,7 C 27,2 C 58 % 0 lf 1009,9 hPa 0,0 l/m 2 min 0 min 693 W/m 18,8 km/h (3 Bft) 93,48 %
08.09.2016 12:54 27,7 C 37,2 C 27,2 C 59 % 0 lf 1009,9 hPa 0,0 l/m 2 min 0 min 714 W/m 23,0 km/h (4 Bft) 93,62 %
08.09.2016 12:56 27,8 C 37,2 C 27,2 C 58 % 0 lf 1009,9 hPa 0,0 l/m 2 min 0 min 707 W/m 20,9 km/h (4 Bft) 95,74 %
08.09.2016 12:58 27,8 C 36,7 C 27,8 C 58 % 0 lf 1009,9 hPa 0,0 l/m 2 min 0 min 691 W/m 14,6 km/h (3 Bft) 93,62 %
08.09.2016 13:00 27,8 C 36,1 C 27,2 C 58 % 0 lf 1009,9 hPa 0,0 l/m 2 min 0 min 691 W/m 18,8 km/h (3 Bft) 97,87 %
08.09.2016 13:02 27,8 C 35,6 C 27,2 C 58 % 0 lf 1009,9 hPa 0,0 l/m 2 min 0 min 697 W/m 25,1 km/h (4 Bft) 97,87 %
08.09.2016 13:04 27,8 C 35,6 C 27,2 C 58 % 0 lf 1009,9 hPa 0,0 l/m 2 min 0 min 707 W/m 14,6 km/h (3 Bft) 95,65 %
08.09.2016 13:06 27,9 C 36,1 C 26,7 C 58 % 0 lf 1009,9 hPa 0,0 l/m 2 min 0 min 718 W/m 18,8 km/h (3 Bft) 95,74 %
08.09.2016 13:08 27,9 C 36,1 C 26,7 C 57 % 0 lf 1009,9 hPa 0,0 l/m 2 min 0 min 714 W/m 20,9 km/h (4 Bft) 95,74 %
08.09.2016 13:10 27,9 C 37,2 C 26,1 C 57 % 0 lf 1009,9 hPa 0,0 l/m 2 min 0 min 714 W/m 18,8 km/h (3 Bft) 93,62 %
08.09.2016 13:12 27,9 C 37,8 C 26,1 C 57 % 0 lf 1009,9 hPa 0,0 l/m 2 min 0 min 720 W/m 18,8 km/h (3 Bft) 97,87 %
08.09.2016 13:14 28,0 C 36,7 C 26,1 C 58 % 0 lf 1009,8 hPa 0,0 l/m 2 min 0 min 719 W/m 10,5 km/h (2 Bft) 95,74 %
08.09.2016 13:16 28,1 C 35,6 C 26,1 C 56 % 0 lf 1009,9 hPa 0,0 l/m 2 min 0 min 719 W/m 16,7 km/h (3 Bft) 100,00 %
08.09.2016 13:18 28,1 C 35,6 C 26,1 C 58 % 0 lf 1009,9 hPa 0,0 l/m 2 min 0 min 719 W/m 16,7 km/h (3 Bft) 97,87 %
08.09.2016 13:20 28,2 C 35,0 C 26,1 C 57 % 0 lf 1010,0 hPa 0,0 l/m 2 min 0 min 713 W/m 20,9 km/h (4 Bft) 95,74 %
08.09.2016 13:22 28,2 C 34,4 C 26,1 C 56 % 0 lf 1009,9 hPa 0,0 l/m 2 min 0 min 710 W/m 20,9 km/h (4 Bft) 97,87 %
08.09.2016 13:24 28,2 C 35,0 C 26,1 C 56 % 0 lf 1010,0 hPa 0,0 l/m 2 min 0 min 712 W/m 18,8 km/h (3 Bft) 97,87 %
08.09.2016 13:26 28,2 C 35,0 C 26,1 C 55 % 0 lf 1009,9 hPa 0,0 l/m 2 min 0 min 714 W/m 20,9 km/h (4 Bft) 97,87 %
08.09.2016 13:28 28,2 C 35,6 C 26,1 C 57 % 0 lf 1010,0 hPa 0,0 l/m 2 min 0 min 718 W/m 16,7 km/h (3 Bft) 95,65 %
08.09.2016 13:30 28,2 C 36,1 C 26,1 C 56 % 0 lf 1009,9 hPa 0,0 l/m 2 min 0 min 718 W/m 16,7 km/h (3 Bft) 95,74 %
08.09.2016 13:32 28,3 C 37,2 C 26,1 C 57 % 0 lf 1010,0 hPa 0,0 l/m 2 min 0 min 713 W/m 25,1 km/h (4 Bft) 93,62 %
08.09.2016 13:34 28,3 C 37,2 C 26,1 C 56 % 0 lf 1010,0 hPa 0,0 l/m 2 min 0 min 717 W/m 27,2 km/h (4 Bft) 97,87 %
08.09.2016 13:36 28,3 C 37,2 C 26,1 C 56 % 0 lf 1009,9 hPa 0,0 l/m 2 min 0 min 711 W/m 18,8 km/h (3 Bft) 95,74 %
08.09.2016 13:38 28,3 C 35,6 C 26,1 C 55 % 0 lf 1010,0 hPa 0,0 l/m 2 min 0 min 716 W/m 20,9 km/h (4 Bft) 95,74 %
08.09.2016 13:40 28,3 C 36,7 C 26,1 C 55 % 0 lf 1009,9 hPa 0,0 l/m 2 min 0 min 709 W/m 23,0 km/h (4 Bft) 95,65 %
08.09.2016 13:42 28,3 C 35,6 C 26,1 C 55 % 0 lf 1009,9 hPa 0,0 l/m 2 min 0 min 703 W/m 23,0 km/h (4 Bft) 97,87 %
08.09.2016 13:44 28,3 C 34,4 C 26,1 C 55 % 0 lf 1010,0 hPa 0,0 l/m 2 min 0 min 714 W/m 29,3 km/h (5 Bft) 95,74 %
08.09.2016 13:46 28,2 C 35,0 C 26,1 C 55 % 0 lf 1010,0 hPa 0,0 l/m 2 min 0 min 715 W/m 18,8 km/h (3 Bft) 95,74 %
08.09.2016 13:48 28,2 C 35,0 C 26,1 C 55 % 0 lf 1010,0 hPa 0,0 l/m 2 min 0 min 704 W/m 23,0 km/h (4 Bft) 95,74 %
08.09.2016 13:50 28,3 C 35,6 C 26,1 C 56 % 0 lf 1010,0 hPa 0,0 l/m 2 min 0 min 713 W/m 12,6 km/h (3 Bft) 95,74 %
08.09.2016 13:52 28,3 C 36,7 C 26,1 C 56 % 0 lf 1010,0 hPa 0,0 l/m 2 min 0 min 704 W/m 20,9 km/h (4 Bft) 95,65 %
08.09.2016 13:54 28,3 C 36,1 C 26,1 C 55 % 0 lf 1010,0 hPa 0,0 l/m 2 min 0 min 704 W/m 12,6 km/h (3 Bft) 97,87 %
08.09.2016 13:56 28,4 C 36,1 C 26,1 C 55 % 0 lf 1010,0 hPa 0,0 l/m 2 min 0 min 716 W/m 16,7 km/h (3 Bft) 97,87 %
08.09.2016 13:58 28,4 C 36,7 C 26,1 C 56 % 0 lf 1010,0 hPa 0,0 l/m 2 min 0 min 715 W/m 18,8 km/h (3 Bft) 97,87 %
08.09.2016 14:00 28,5 C 38,9 C 26,1 C 56 % 0 lf 1010,0 hPa 0,0 l/m 2 min 0 min 709 W/m 20,9 km/h (4 Bft) 97,87 %
08.09.2016 14:02 28,6 C 37,8 C 26,1 C 55 % 0 lf 1010,0 hPa 0,0 l/m 2 min 0 min 707 W/m 18,8 km/h (3 Bft) 97,87 %
08.09.2016 14:04 28,6 C 36,7 C 26,1 C 55 % 0 lf 1010,0 hPa 0,0 l/m 2 min 0 min 708 W/m 12,6 km/h (3 Bft) 97,83 %
08.09.2016 14:06 28,7 C 36,1 C 26,1 C 55 % 0 lf 1010,0 hPa 0,0 l/m 2 min 0 min 696 W/m 14,6 km/h (3 Bft) 97,87 %
08.09.2016 14:08 28,7 C 36,7 C 26,1 C 56 % 0 lf 1010,1 hPa 0,0 l/m 2 min 0 min 696 W/m 16,7 km/h (3 Bft) 95,74 %
08.09.2016 14:10 28,8 C 36,7 C 26,1 C 55 % 0 lf 1010,1 hPa 0,0 l/m 2 min 0 min 695 W/m 14,6 km/h (3 Bft) 97,87 %
08.09.2016 14:12 28,7 C 36,1 C 26,1 C 55 % 0 lf 1010,1 hPa 0,0 l/m 2 min 0 min 700 W/m 18,8 km/h (3 Bft) 97,87 %
08.09.2016 14:14 28,7 C 35,6 C 26,1 C 55 % 0 lf 1010,1 hPa 0,0 l/m 2 min 0 min 694 W/m 23,0 km/h (4 Bft) 95,65 %
08.09.2016 14:16 28,7 C 36,1 C 26,1 C 55 % 0 lf 1010,1 hPa 0,0 l/m 2 min 0 min 694 W/m 23,0 km/h (4 Bft) 100,00 %
08.09.2016 14:18 28,7 C 36,7 C 26,1 C 55 % 0 lf 1010,1 hPa 0,0 l/m 2 min 0 min 693 W/m 20,9 km/h (4 Bft) 100,00 %
08.09.2016 14:20 28,7 C 36,1 C 26,1 C 55 % 0 lf 1010,1 hPa 0,0 l/m 2 min 0 min 692 W/m 20,9 km/h (4 Bft) 95,74 %
08.09.2016 14:22 28,7 C 36,1 C 26,1 C 54 % 0 lf 1010,1 hPa 0,0 l/m 2 min 0 min 687 W/m 20,9 km/h (4 Bft) 97,87 %
08.09.2016 14:24 28,7 C 37,8 C 26,1 C 55 % 0 lf 1010,1 hPa 0,0 l/m 2 min 0 min 677 W/m 18,8 km/h (3 Bft) 97,87 %
08.09.2016 14:26 28,7 C 37,2 C 26,7 C 54 % 0 lf 1010,1 hPa 0,0 l/m 2 min 0 min 688 W/m 20,9 km/h (4 Bft) 95,65 %
08.09.2016 14:28 28,7 C 36,1 C 26,1 C 54 % 0 lf 1010,1 hPa 0,0 l/m 2 min 0 min 682 W/m 20,9 km/h (4 Bft) 95,74 %
08.09.2016 14:30 28,7 C 35,6 C 26,1 C 55 % 0 lf 1010,1 hPa 0,0 l/m 2 min 0 min 680 W/m 16,7 km/h (3 Bft) 93,62 %
08.09.2016 14:32 28,8 C 36,7 C 26,1 C 55 % 0 lf 1010,1 hPa 0,0 l/m 2 min 0 min 674 W/m 18,8 km/h (3 Bft) 95,74 %
08.09.2016 14:34 28,8 C 37,2 C 26,7 C 56 % 0 lf 1010,1 hPa 0,0 l/m 2 min 0 min 657 W/m 12,6 km/h (3 Bft) 93,62 %
08.09.2016 14:36 28,8 C 37,8 C 26,7 C 56 % 0 lf 1010,2 hPa 0,0 l/m 2 min 0 min 670 W/m 16,7 km/h (3 Bft) 95,74 %
08.09.2016 14:38 28,9 C 37,2 C 26,7 C 55 % 0 lf 1010,2 hPa 0,0 l/m 2 min 0 min 653 W/m 16,7 km/h (3 Bft) 95,65 %
08.09.2016 14:40 28,9 C 37,2 C 26,7 C 56 % 0 lf 1010,2 hPa 0,0 l/m 2 min 0 min 682 W/m 10,5 km/h (2 Bft) 93,62 %
08.09.2016 14:42 29,0 C 35,6 C 26,7 C 55 % 0 lf 1010,2 hPa 0,0 l/m 2 min 0 min 814 W/m 33,5 km/h (5 Bft) 95,74 %
08.09.2016 14:44 28,9 C 36,1 C 26,7 C 54 % 0 lf 1010,2 hPa 0,0 l/m 2 min 0 min 1245 W/m 23,0 km/h (4 Bft) 95,74 %
08.09.2016 14:46 28,9 C 36,7 C 26,7 C 54 % 0 lf 1010,1 hPa 0,0 l/m 2 min 0 min 1222 W/m 18,8 km/h (3 Bft) 95,74 %
08.09.2016 14:48 28,9 C 37,2 C 26,7 C 54 % 0 lf 1010,1 hPa 0,0 l/m 2 min 0 min 1242 W/m 25,1 km/h (4 Bft) 95,74 %
08.09.2016 14:50 28,9 C 34,4 C 26,7 C 53 % 0 lf 1010,2 hPa 0,0 l/m 2 min 0 min 1237 W/m 23,0 km/h (4 Bft) 97,83 %
08.09.2016 14:52 28,9 C 35,0 C 27,8 C 53 % 0 lf 1010,2 hPa 0,0 l/m 2 min 0 min 1228 W/m 18,8 km/h (3 Bft) 97,87 %
08.09.2016 14:54 28,9 C 36,7 C 27,8 C 53 % 0 lf 1010,1 hPa 0,0 l/m 2 min 0 min 1211 W/m 14,6 km/h (3 Bft) 97,87 %
08.09.2016 14:56 28,9 C 36,1 C 27,8 C 53 % 0 lf 1010,1 hPa 0,0 l/m 2 min 0 min 1213 W/m 20,9 km/h (4 Bft) 97,87 %
08.09.2016 14:58 28,9 C 35,0 C 27,2 C 53 % 0 lf 1010,2 hPa 0,0 l/m 2 min 0 min 1199 W/m 25,1 km/h (4 Bft) 97,87 %
08.09.2016 15:00 28,9 C 33,9 C 27,2 C 52 % 0 lf 1010,1 hPa 0,0 l/m 2 min 0 min 1228 W/m 23,0 km/h (4 Bft) 95,74 %
08.09.2016 15:02 28,9 C 35,0 C 27,2 C 53 % 0 lf 1010,2 hPa 0,0 l/m 2 min 0 min 1230 W/m 14,6 km/h (3 Bft) 95,65 %
08.09.2016 15:04 29,0 C 36,1 C 27,8 C 54 % 0 lf 1010,2 hPa 0,0 l/m 2 min 0 min 1232 W/m 16,7 km/h (3 Bft) 91,49 %
08.09.2016 15:06 29,0 C 35,6 C 28,9 C 53 % 0 lf 1010,2 hPa 0,0 l/m 2 min 0 min 1235 W/m 23,0 km/h (4 Bft) 93,62 %
08.09.2016 15:08 29,1 C 36,7 C 30,6 C 53 % 0 lf 1010,2 hPa 0,0 l/m 2 min 0 min 1222 W/m 20,9 km/h (4 Bft) 95,74 %
08.09.2016 15:10 29,1 C 36,1 C 30,6 C 53 % 0 lf 1010,2 hPa 0,0 l/m 2 min 0 min 1221 W/m 14,6 km/h (3 Bft) 95,74 %
08.09.2016 15:12 29,1 C 38,3 C 30,0 C 54 % 0 lf 1010,2 hPa 0,0 l/m 2 min 0 min 1225 W/m 12,6 km/h (3 Bft) 93,62 %
08.09.2016 15:14 29,2 C 38,3 C 30,0 C 53 % 0 lf 1010,2 hPa 0,0 l/m 2 min 0 min 1222 W/m 10,5 km/h (2 Bft) 95,65 %
08.09.2016 15:16 29,2 C 37,2 C 30,6 C 54 % 0 lf 1010,2 hPa 0,0 l/m 2 min 0 min 1230 W/m 18,8 km/h (3 Bft) 95,74 %
08.09.2016 15:18 29,2 C 37,2 C 30,6 C 53 % 0 lf 1010,3 hPa 0,0 l/m 2 min 0 min 1226 W/m 23,0 km/h (4 Bft) 95,74 %
08.09.2016 15:20 29,2 C 37,2 C 30,0 C 53 % 0 lf 1010,2 hPa 0,0 l/m 2 min 0 min 1225 W/m 18,8 km/h (3 Bft) 95,74 %
08.09.2016 15:22 29,2 C 36,7 C 30,0 C 53 % 0 lf 1010,3 hPa 0,0 l/m 2 min 0 min 1221 W/m 23,0 km/h (4 Bft) 93,62 %
08.09.2016 15:24 29,2 C 36,1 C 30,0 C 52 % 0 lf 1010,3 hPa 0,0 l/m 2 min 0 min 1217 W/m 31,4 km/h (5 Bft) 93,48 %
08.09.2016 15:26 29,2 C 35,6 C 29,4 C 52 % 0 lf 1010,3 hPa 0,0 l/m 2 min 0 min 1216 W/m 25,1 km/h (4 Bft) 95,74 %
08.09.2016 15:28 29,1 C 33,9 C 28,9 C 53 % 0 lf 1010,3 hPa 0,0 l/m 2 min 0 min 1209 W/m 27,2 km/h (4 Bft) 95,74 %
08.09.2016 15:30 29,1 C 34,4 C 28,3 C 53 % 0 lf 1010,3 hPa 0,0 l/m 2 min 0 min 1209 W/m 25,1 km/h (4 Bft) 93,62 %
08.09.2016 15:32 29,1 C 34,4 C 27,8 C 53 % 0 lf 1010,2 hPa 0,0 l/m 2 min 0 min 1210 W/m 18,8 km/h (3 Bft) 93,62 %
08.09.2016 15:34 29,1 C 35,0 C 27,8 C 53 % 0 lf 1010,2 hPa 0,0 l/m 2 min 0 min 1209 W/m 14,6 km/h (3 Bft) 95,74 %
08.09.2016 15:36 29,1 C 34,4 C 27,8 C 53 % 0 lf 1010,2 hPa 0,0 l/m 2 min 0 min 1208 W/m 18,8 km/h (3 Bft) 95,65 %
08.09.2016 15:38 29,1 C 34,4 C 28,3 C 53 % 0 lf 1010,3 hPa 0,0 l/m 2 min 0 min 1203 W/m 18,8 km/h (3 Bft) 95,74 %
08.09.2016 15:40 29,1 C 34,4 C 27,8 C 54 % 0 lf 1010,2 hPa 0,0 l/m 2 min 0 min 1199 W/m 18,8 km/h (3 Bft) 95,74 %
08.09.2016 15:42 29,1 C 35,0 C 27,2 C 54 % 0 lf 1010,2 hPa 0,0 l/m 2 min 0 min 1194 W/m 10,5 km/h (2 Bft) 100,00 %
08.09.2016 15:44 29,1 C 36,1 C 27,2 C 53 % 0 lf 1010,2 hPa 0,0 l/m 2 min 0 min 1193 W/m 12,6 km/h (3 Bft) 95,74 %
08.09.2016 15:46 29,2 C 36,7 C 27,2 C 53 % 0 lf 1010,2 hPa 0,0 l/m 2 min 0 min 1192 W/m 10,5 km/h (2 Bft) 100,00 %
08.09.2016 15:48 29,2 C 36,7 C 27,2 C 53 % 0 lf 1010,2 hPa 0,0 l/m 2 min 0 min 1184 W/m 18,8 km/h (3 Bft) 100,00 %
08.09.2016 15:50 29,2 C 36,7 C 27,2 C 53 % 0 lf 1010,3 hPa 0,0 l/m 2 min 0 min 1187 W/m 18,8 km/h (3 Bft) 97,87 %
08.09.2016 15:52 29,2 C 37,8 C 27,2 C 54 % 0 lf 1010,2 hPa 0,0 l/m 2 min 0 min 1184 W/m 14,6 km/h (3 Bft) 95,74 %
08.09.2016 15:54 29,2 C 36,1 C 27,2 C 52 % 0 lf 1010,2 hPa 0,0 l/m 2 min 0 min 1183 W/m 14,6 km/h (3 Bft) 97,87 %
08.09.2016 15:56 29,3 C 36,7 C 26,7 C 53 % 0 lf 1010,2 hPa 0,0 l/m 2 min 0 min 1181 W/m 16,7 km/h (3 Bft) 97,87 %
08.09.2016 15:58 29,3 C 35,6 C 26,7 C 52 % 0 lf 1010,2 hPa 0,0 l/m 2 min 0 min 1174 W/m 12,6 km/h (3 Bft) 100,00 %
08.09.2016 16:00 29,3 C 36,1 C 26,7 C 53 % 0 lf 1010,2 hPa 0,0 l/m 2 min 0 min 1174 W/m 16,7 km/h (3 Bft) 97,83 %
08.09.2016 16:02 29,3 C 35,6 C 26,7 C 52 % 0 lf 1010,3 hPa 0,0 l/m 2 min 0 min 1169 W/m 20,9 km/h (4 Bft) 97,87 %
08.09.2016 16:04 29,3 C 35,6 C 26,7 C 52 % 0 lf 1010,3 hPa 0,0 l/m 2 min 0 min 1165 W/m 16,7 km/h (3 Bft) 95,74 %
08.09.2016 16:06 29,3 C 35,6 C 26,7 C 51 % 0 lf 1010,2 hPa 0,0 l/m 2 min 0 min 1152 W/m 10,5 km/h (2 Bft) 97,87 %
08.09.2016 16:08 29,3 C 36,1 C 26,7 C 52 % 0 lf 1010,2 hPa 0,0 l/m 2 min 0 min 1154 W/m 16,7 km/h (3 Bft) 95,74 %
08.09.2016 16:10 29,3 C 35,6 C 26,7 C 52 % 0 lf 1010,3 hPa 0,0 l/m 2 min 0 min 1153 W/m 23,0 km/h (4 Bft) 97,87 %
08.09.2016 16:12 29,3 C 35,6 C 26,7 C 52 % 0 lf 1010,3 hPa 0,0 l/m 2 min 0 min 1153 W/m 23,0 km/h (4 Bft) 93,48 %
08.09.2016 16:14 29,3 C 35,6 C 26,7 C 52 % 0 lf 1010,2 hPa 0,0 l/m 2 min 0 min 1154 W/m 14,6 km/h (3 Bft) 95,74 %
08.09.2016 16:16 29,3 C 35,0 C 26,7 C 52 % 0 lf 1010,3 hPa 0,0 l/m 2 min 0 min 1151 W/m 20,9 km/h (4 Bft) 95,74 %
08.09.2016 16:18 29,3 C 35,0 C 26,7 C 51 % 0 lf 1010,4 hPa 0,0 l/m 2 min 0 min 1147 W/m 25,1 km/h (4 Bft) 95,74 %
08.09.2016 16:20 29,3 C 35,6 C 26,7 C 51 % 0 lf 1010,3 hPa 0,0 l/m 2 min 0 min 1142 W/m 16,7 km/h (3 Bft) 93,62 %
08.09.2016 16:22 29,3 C 35,0 C 26,7 C 51 % 0 lf 1010,2 hPa 0,0 l/m 2 min 0 min 1137 W/m 18,8 km/h (3 Bft) 97,87 %
08.09.2016 16:24 29,2 C 35,6 C 26,7 C 51 % 0 lf 1010,3 hPa 0,0 l/m 2 min 0 min 1134 W/m 12,6 km/h (3 Bft) 97,83 %
08.09.2016 16:26 29,3 C 36,7 C 27,2 C 52 % 0 lf 1010,3 hPa 0,0 l/m 2 min 0 min 1137 W/m 14,6 km/h (3 Bft) 97,87 %
08.09.2016 16:28 29,3 C 36,7 C 27,2 C 51 % 0 lf 1010,3 hPa 0,0 l/m 2 min 0 min 1136 W/m 14,6 km/h (3 Bft) 97,87 %
08.09.2016 16:30 29,2 C 36,1 C 26,7 C 52 % 0 lf 1010,3 hPa 0,0 l/m 2 min 0 min 1129 W/m 16,7 km/h (3 Bft) 95,74 %
08.09.2016 16:32 29,2 C 36,7 C 26,7 C 51 % 0 lf 1010,3 hPa 0,0 l/m 2 min 0 min 1127 W/m 16,7 km/h (3 Bft) 93,62 %
08.09.2016 16:34 29,2 C 35,6 C 26,7 C 51 % 0 lf 1010,4 hPa 0,0 l/m 2 min 0 min 1126 W/m 25,1 km/h (4 Bft) 93,62 %
08.09.2016 16:36 29,2 C 35,0 C 26,7 C 51 % 0 lf 1010,4 hPa 0,0 l/m 2 min 0 min 1122 W/m 14,6 km/h (3 Bft) 95,65 %
08.09.2016 16:38 29,2 C 35,6 C 26,7 C 51 % 0 lf 1010,4 hPa 0,0 l/m 2 min 0 min 1120 W/m 14,6 km/h (3 Bft) 95,74 %
08.09.2016 16:40 29,2 C 35,0 C 26,1 C 52 % 0 lf 1010,3 hPa 0,0 l/m 2 min 0 min 1115 W/m 18,8 km/h (3 Bft) 97,87 %
08.09.2016 16:42 29,2 C 35,0 C 26,1 C 52 % 0 lf 1010,3 hPa 0,0 l/m 2 min 0 min 1110 W/m 20,9 km/h (4 Bft) 97,87 %
08.09.2016 16:44 29,2 C 35,6 C 26,1 C 52 % 0 lf 1010,4 hPa 0,0 l/m 2 min 0 min 1109 W/m 20,9 km/h (4 Bft) 95,74 %
08.09.2016 16:46 29,2 C 35,6 C 26,7 C 51 % 0 lf 1010,4 hPa 0,0 l/m 2 min 0 min 1100 W/m 18,8 km/h (3 Bft) 97,87 %
08.09.2016 16:48 29,2 C 35,0 C 26,1 C 51 % 0 lf 1010,4 hPa 0,0 l/m 2 min 0 min 1089 W/m 18,8 km/h (3 Bft) 97,83 %
08.09.2016 16:50 29,2 C 35,0 C 26,1 C 51 % 0 lf 1010,4 hPa 0,0 l/m 2 min 0 min 1078 W/m 23,0 km/h (4 Bft) 95,74 %
08.09.2016 16:52 29,2 C 35,0 C 26,1 C 51 % 0 lf 1010,4 hPa 0,0 l/m 2 min 0 min 1061 W/m 20,9 km/h (4 Bft) 97,87 %
08.09.2016 16:54 29,2 C 34,4 C 26,1 C 52 % 0 lf 1010,3 hPa 0,0 l/m 2 min 0 min 1054 W/m 10,5 km/h (2 Bft) 95,74 %
08.09.2016 16:56 29,2 C 35,0 C 26,1 C 52 % 0 lf 1010,4 hPa 0,0 l/m 2 min 0 min 1064 W/m 20,9 km/h (4 Bft) 97,87 %
08.09.2016 16:58 29,2 C 35,0 C 26,1 C 52 % 0 lf 1010,4 hPa 0,0 l/m 2 min 0 min 1060 W/m 14,6 km/h (3 Bft) 95,65 %
08.09.2016 17:00 29,2 C 33,9 C 26,1 C 52 % 0 lf 1010,4 hPa 0,0 l/m 2 min 0 min 1053 W/m 20,9 km/h (4 Bft) 95,74 %
08.09.2016 17:02 29,2 C 34,4 C 26,1 C 51 % 0 lf 1010,3 hPa 0,0 l/m 2 min 0 min 1056 W/m 18,8 km/h (3 Bft) 97,87 %
08.09.2016 17:04 29,2 C 33,9 C 26,1 C 51 % 0 lf 1010,4 hPa 0,0 l/m 2 min 0 min 1032 W/m 16,7 km/h (3 Bft) 97,87 %
08.09.2016 17:06 29,1 C 33,3 C 26,1 C 51 % 0 lf 1010,3 hPa 0,0 l/m 2 min 0 min 1010 W/m 12,6 km/h (3 Bft) 97,87 %
08.09.2016 17:08 29,1 C 33,9 C 26,1 C 52 % 0 lf 1010,4 hPa 0,0 l/m 2 min 0 min 1012 W/m 18,8 km/h (3 Bft) 97,87 %
08.09.2016 17:10 29,1 C 34,4 C 25,6 C 52 % 0 lf 1010,4 hPa 0,0 l/m 2 min 0 min 1046 W/m 16,7 km/h (3 Bft) 93,48 %
08.09.2016 17:12 29,1 C 33,9 C 25,6 C 52 % 0 lf 1010,4 hPa 0,0 l/m 2 min 0 min 1055 W/m 14,6 km/h (3 Bft) 95,74 %
08.09.2016 17:14 29,1 C 34,4 C 25,6 C 52 % 0 lf 1010,4 hPa 0,0 l/m 2 min 0 min 1053 W/m 12,6 km/h (3 Bft) 95,74 %
08.09.2016 17:16 29,1 C 33,9 C 25,6 C 52 % 0 lf 1010,3 hPa 0,0 l/m 2 min 0 min 1048 W/m 20,9 km/h (4 Bft) 95,74 %
08.09.2016 17:18 29,0 C 33,9 C 25,6 C 52 % 0 lf 1010,4 hPa 0,0 l/m 2 min 0 min 1043 W/m 12,6 km/h (3 Bft) 95,74 %
08.09.2016 17:20 29,0 C 33,9 C 25,6 C 52 % 0 lf 1010,4 hPa 0,0 l/m 2 min 0 min 1037 W/m 12,6 km/h (3 Bft) 97,87 %
08.09.2016 17:22 29,0 C 33,3 C 25,6 C 52 % 0 lf 1010,4 hPa 0,0 l/m 2 min 0 min 1032 W/m 12,6 km/h (3 Bft) 95,65 %
08.09.2016 17:24 29,0 C 33,3 C 25,6 C 52 % 0 lf 1010,4 hPa 0,0 l/m 2 min 0 min 1030 W/m 12,6 km/h (3 Bft) 95,74 %
08.09.2016 17:26 29,0 C 32,8 C 25,6 C 52 % 0 lf 1010,4 hPa 0,0 l/m 2 min 0 min 1024 W/m 14,6 km/h (3 Bft) 97,87 %
08.09.2016 17:28 29,0 C 32,8 C 25,6 C 53 % 0 lf 1010,4 hPa 0,0 l/m 2 min 0 min 1023 W/m 23,0 km/h (4 Bft) 97,87 %
08.09.2016 17:30 28,9 C 32,8 C 25,6 C 52 % 0 lf 1010,4 hPa 0,0 l/m 2 min 0 min 1008 W/m 16,7 km/h (3 Bft) 91,49 %
08.09.2016 17:32 29,0 C 33,3 C 25,6 C 52 % 0 lf 1010,4 hPa 0,0 l/m 2 min 0 min 980 W/m 12,6 km/h (3 Bft) 97,87 %
08.09.2016 17:34 29,0 C 33,3 C 25,6 C 52 % 0 lf 1010,4 hPa 0,0 l/m 2 min 0 min 999 W/m 12,6 km/h (3 Bft) 100,00 %
08.09.2016 17:36 29,0 C 32,8 C 25,6 C 52 % 0 lf 1010,5 hPa 0,0 l/m 2 min 0 min 970 W/m 18,8 km/h (3 Bft) 97,87 %
08.09.2016 17:38 28,9 C 32,2 C 25,6 C 52 % 0 lf 1010,5 hPa 0,0 l/m 2 min 0 min 941 W/m 18,8 km/h (3 Bft) 97,87 %
08.09.2016 17:40 28,9 C 32,8 C 25,6 C 53 % 0 lf 1010,4 hPa 0,0 l/m 2 min 0 min 976 W/m 14,6 km/h (3 Bft) 95,74 %
08.09.2016 17:42 28,9 C 32,2 C 25,6 C 53 % 0 lf 1010,4 hPa 0,0 l/m 2 min 0 min 986 W/m 18,8 km/h (3 Bft) 97,87 %
08.09.2016 17:44 28,9 C 31,7 C 25,6 C 52 % 0 lf 1010,5 hPa 0,0 l/m 2 min 0 min 942 W/m 23,0 km/h (4 Bft) 97,87 %
08.09.2016 17:46 28,8 C 31,7 C 25,6 C 52 % 0 lf 1010,5 hPa 0,0 l/m 2 min 0 min 965 W/m 20,9 km/h (4 Bft) 93,48 %
08.09.2016 17:48 28,8 C 31,7 C 25,6 C 52 % 0 lf 1010,5 hPa 0,0 l/m 2 min 0 min 977 W/m 14,6 km/h (3 Bft) 93,62 %
08.09.2016 17:50 28,8 C 31,7 C 25,0 C 52 % 0 lf 1010,5 hPa 0,0 l/m 2 min 0 min 972 W/m 18,8 km/h (3 Bft) 95,74 %
08.09.2016 17:52 28,8 C 31,1 C 25,0 C 52 % 0 lf 1010,5 hPa 0,0 l/m 2 min 0 min 957 W/m 14,6 km/h (3 Bft) 97,87 %
08.09.2016 17:54 28,7 C 31,7 C 25,0 C 53 % 0 lf 1010,5 hPa 0,0 l/m 2 min 0 min 958 W/m 14,6 km/h (3 Bft) 97,87 %
08.09.2016 17:56 28,7 C 31,1 C 25,0 C 53 % 0 lf 1010,5 hPa 0,0 l/m 2 min 0 min 963 W/m 16,7 km/h (3 Bft) 93,62 %
08.09.2016 17:58 28,7 C 30,6 C 25,0 C 53 % 0 lf 1010,5 hPa 0,0 l/m 2 min 0 min 959 W/m 18,8 km/h (3 Bft) 93,48 %
08.09.2016 18:00 28,6 C 30,0 C 25,0 C 53 % 0 lf 1010,5 hPa 0,0 l/m 2 min 0 min 957 W/m 23,0 km/h (4 Bft) 95,74 %
08.09.2016 18:02 28,5 C 30,0 C 25,0 C 53 % 0 lf 1010,5 hPa 0,0 l/m 2 min 0 min 952 W/m 23,0 km/h (4 Bft) 91,49 %
08.09.2016 18:04 28,5 C 30,6 C 25,0 C 53 % 0 lf 1010,6 hPa 0,0 l/m 2 min 0 min 951 W/m 14,6 km/h (3 Bft) 87,50 %
08.09.2016 18:06 28,5 C 31,1 C 25,0 C 53 % 0 lf 1010,5 hPa 0,0 l/m 2 min 0 min 947 W/m 18,8 km/h (3 Bft) 95,74 %
08.09.2016 18:08 28,4 C 30,0 C 25,0 C 53 % 0 lf 1010,5 hPa 0,0 l/m 2 min 0 min 937 W/m 12,6 km/h (3 Bft) 95,65 %
08.09.2016 18:10 28,4 C 30,0 C 25,0 C 53 % 0 lf 1010,5 hPa 0,0 l/m 2 min 0 min 934 W/m 12,6 km/h (3 Bft) 95,74 %
08.09.2016 18:12 28,3 C 30,0 C 24,4 C 53 % 0 lf 1010,5 hPa 0,0 l/m 2 min 0 min 920 W/m 12,6 km/h (3 Bft) 95,74 %
08.09.2016 18:14 28,3 C 29,4 C 24,4 C 54 % 0 lf 1010,5 hPa 0,0 l/m 2 min 0 min 919 W/m 10,5 km/h (2 Bft) 91,49 %
08.09.2016 18:16 28,3 C 28,9 C 24,4 C 54 % 0 lf 1010,5 hPa 0,0 l/m 2 min 0 min 916 W/m 14,6 km/h (3 Bft) 91,49 %
08.09.2016 18:18 28,2 C 28,3 C 24,4 C 54 % 0 lf 1010,5 hPa 0,0 l/m 2 min 0 min 902 W/m 14,6 km/h (3 Bft) 95,74 %
08.09.2016 18:20 28,2 C 28,3 C 24,4 C 54 % 0 lf 1010,5 hPa 0,0 l/m 2 min 0 min 904 W/m 10,5 km/h (2 Bft) 93,48 %
08.09.2016 18:22 28,2 C 28,3 C 24,4 C 55 % 0 lf 1010,5 hPa 0,0 l/m 2 min 0 min 902 W/m 10,5 km/h (2 Bft) 93,62 %
08.09.2016 18:24 28,1 C 28,3 C 23,9 C 55 % 0 lf 1010,5 hPa 0,0 l/m 2 min 0 min 903 W/m 20,9 km/h (4 Bft) 93,62 %
08.09.2016 18:26 28,1 C 28,3 C 24,4 C 54 % 0 lf 1010,5 hPa 0,0 l/m 2 min 0 min 894 W/m 16,7 km/h (3 Bft) 93,62 %
08.09.2016 18:28 28,0 C 27,8 C 24,4 C 54 % 0 lf 1010,5 hPa 0,0 l/m 2 min 0 min 877 W/m 14,6 km/h (3 Bft) 95,74 %
08.09.2016 18:30 28,0 C 27,8 C 24,4 C 54 % 0 lf 1010,6 hPa 0,0 l/m 2 min 0 min 882 W/m 14,6 km/h (3 Bft) 97,87 %
08.09.2016 18:32 27,9 C 27,8 C 23,9 C 54 % 0 lf 1010,6 hPa 0,0 l/m 2 min 0 min 880 W/m 16,7 km/h (3 Bft) 97,87 %
08.09.2016 18:34 27,9 C 27,8 C 24,4 C 54 % 0 lf 1010,6 hPa 0,0 l/m 2 min 0 min 876 W/m 16,7 km/h (3 Bft) 97,83 %
08.09.2016 18:36 27,8 C 27,8 C 23,9 C 54 % 0 lf 1010,6 hPa 0,0 l/m 2 min 0 min 400 W/m 14,6 km/h (3 Bft) 91,49 %
08.09.2016 18:38 27,8 C 27,8 C 24,4 C 55 % 0 lf 1010,6 hPa 0,0 l/m 2 min 0 min 134 W/m 16,7 km/h (3 Bft) 93,62 %
08.09.2016 18:40 27,8 C 27,8 C 23,9 C 54 % 0 lf 1010,6 hPa 0,0 l/m 2 min 0 min 126 W/m 16,7 km/h (3 Bft) 95,74 %
08.09.2016 18:42 27,7 C 27,2 C 23,9 C 54 % 0 lf 1010,7 hPa 0,0 l/m 2 min 0 min 119 W/m 23,0 km/h (4 Bft) 97,87 %
08.09.2016 18:44 27,7 C 27,2 C 23,9 C 55 % 0 lf 1010,7 hPa 0,0 l/m 2 min 0 min 112 W/m 18,8 km/h (3 Bft) 97,83 %
08.09.2016 18:46 27,6 C 27,2 C 23,9 C 55 % 0 lf 1010,7 hPa 0,0 l/m 2 min 0 min 106 W/m 12,6 km/h (3 Bft) 95,74 %
08.09.2016 18:48 27,6 C 27,2 C 23,9 C 55 % 0 lf 1010,7 hPa 0,0 l/m 2 min 0 min 99 W/m 14,6 km/h (3 Bft) 97,87 %
08.09.2016 18:50 27,6 C 27,2 C 23,9 C 55 % 0 lf 1010,7 hPa 0,0 l/m 2 min 0 min 92 W/m 10,5 km/h (2 Bft) 97,87 %
08.09.2016 18:52 27,5 C 27,2 C 23,3 C 55 % 0 lf 1010,8 hPa 0,0 l/m 0 min 0 min 85 W/m 8,4 km/h (2 Bft) 97,87 %
08.09.2016 18:54 27,4 C 27,2 C 23,3 C 56 % 0 lf 1010,7 hPa 0,0 l/m 0 min 0 min 81 W/m 16,7 km/h (3 Bft) 91,49 %
08.09.2016 18:56 27,4 C 26,7 C 23,3 C 56 % 0 lf 1010,8 hPa 0,0 l/m 0 min 0 min 76 W/m 8,4 km/h (2 Bft) 95,65 %
08.09.2016 18:58 27,3 C 26,7 C 23,3 C 55 % 0 lf 1010,8 hPa 0,0 l/m 0 min 0 min 73 W/m 12,6 km/h (3 Bft) 97,87 %
08.09.2016 19:00 27,3 C 26,7 C 23,3 C 56 % 0 lf 1010,8 hPa 0,0 l/m 0 min 0 min 66 W/m 12,6 km/h (3 Bft) 95,74 %
08.09.2016 19:02 27,2 C 26,7 C 22,8 C 56 % 0 lf 1010,8 hPa 0,0 l/m 0 min 0 min 60 W/m 16,7 km/h (3 Bft) 97,87 %
08.09.2016 19:04 27,2 C 26,7 C 22,8 C 56 % 0 lf 1010,9 hPa 0,0 l/m 0 min 0 min 47 W/m 10,5 km/h (2 Bft) 95,74 %
08.09.2016 19:06 27,1 C 26,1 C 22,8 C 56 % 0 lf 1010,9 hPa 0,0 l/m 0 min 0 min 43 W/m 16,7 km/h (3 Bft) 97,87 %
08.09.2016 19:08 27,1 C 26,1 C 22,8 C 56 % 0 lf 1010,9 hPa 0,0 l/m 0 min 0 min 40 W/m 16,7 km/h (3 Bft) 93,48 %
08.09.2016 19:10 27,0 C 26,1 C 22,2 C 57 % 0 lf 1010,9 hPa 0,0 l/m 0 min 0 min 40 W/m 6,3 km/h (2 Bft) 97,87 %
08.09.2016 19:12 26,9 C 26,1 C 22,2 C 57 % 0 lf 1010,9 hPa 0,0 l/m 0 min 0 min 39 W/m 8,4 km/h (2 Bft) 95,74 %
08.09.2016 19:14 26,9 C 26,1 C 22,2 C 57 % 0 lf 1011,0 hPa 0,0 l/m 0 min 0 min 38 W/m 12,6 km/h (3 Bft) 97,87 %
08.09.2016 19:16 26,8 C 26,1 C 22,2 C 57 % 0 lf 1010,9 hPa 0,0 l/m 0 min 0 min 37 W/m 6,3 km/h (2 Bft) 100,00 %
08.09.2016 19:18 26,7 C 26,1 C 22,2 C 57 % 0 lf 1011,0 hPa 0,0 l/m 0 min 0 min 36 W/m 8,4 km/h (2 Bft) 97,87 %
08.09.2016 19:20 26,7 C 25,6 C 21,7 C 57 % 0 lf 1011,0 hPa 0,0 l/m 0 min 0 min 35 W/m 8,4 km/h (2 Bft) 100,00 %
08.09.2016 19:22 26,6 C 25,6 C 21,7 C 57 % 0 lf 1011,0 hPa 0,0 l/m 0 min 0 min 33 W/m 8,4 km/h (2 Bft) 97,87 %
08.09.2016 19:24 26,6 C 25,6 C 22,2 C 57 % 0 lf 1011,0 hPa 0,0 l/m 0 min 0 min 33 W/m 12,6 km/h (3 Bft) 100,00 %
08.09.2016 19:26 26,5 C 25,6 C 21,7 C 57 % 0 lf 1011,1 hPa 0,0 l/m 0 min 0 min 32 W/m 10,5 km/h (2 Bft) 100,00 %
08.09.2016 19:28 26,4 C 25,6 C 21,7 C 58 % 0 lf 1011,1 hPa 0,0 l/m 0 min 0 min 30 W/m 8,4 km/h (2 Bft) 93,62 %
08.09.2016 19:30 26,4 C 25,6 C 21,7 C 58 % 0 lf 1011,1 hPa 0,0 l/m 0 min 0 min 29 W/m 14,6 km/h (3 Bft) 97,83 %
08.09.2016 19:32 26,3 C 25,0 C 21,7 C 58 % 0 lf 1011,1 hPa 0,0 l/m 0 min 0 min 28 W/m 8,4 km/h (2 Bft) 97,87 %
08.09.2016 19:34 26,3 C 25,0 C 21,1 C 58 % 0 lf 1011,1 hPa 0,0 l/m 0 min 0 min 26 W/m 6,3 km/h (2 Bft) 93,62 %
08.09.2016 19:36 26,2 C 25,0 C 21,1 C 58 % 0 lf 1011,1 hPa 0,0 l/m 0 min 0 min 25 W/m 4,2 km/h (1 Bft) 95,74 %
08.09.2016 19:38 26,2 C 25,0 C 20,6 C 59 % 0 lf 1011,1 hPa 0,0 l/m 0 min 0 min 24 W/m 4,2 km/h (1 Bft) 93,62 %
08.09.2016 19:40 26,1 C 24,4 C 20,6 C 59 % 0 lf 1011,2 hPa 0,0 l/m 0 min 0 min 23 W/m 4,2 km/h (1 Bft) 100,00 %
08.09.2016 19:42 26,1 C 24,4 C 20,6 C 59 % 0 lf 1011,2 hPa 0,0 l/m 0 min 0 min 21 W/m 8,4 km/h (2 Bft) 97,83 %
08.09.2016 19:44 26,0 C 24,4 C 20,6 C 60 % 0 lf 1011,2 hPa 0,0 l/m 2 min 0 min 20 W/m 6,3 km/h (2 Bft) 97,87 %
08.09.2016 19:46 26,0 C 23,9 C 20,0 C 60 % 0 lf 1011,2 hPa 0,0 l/m 2 min 0 min 19 W/m 6,3 km/h (2 Bft) 100,00 %
08.09.2016 19:48 25,9 C 23,9 C 20,6 C 60 % 0 lf 1011,2 hPa 0,0 l/m 0 min 0 min 18 W/m 8,4 km/h (2 Bft) 95,74 %
08.09.2016 19:50 25,8 C 23,9 C 20,0 C 60 % 0 lf 1011,2 hPa 0,0 l/m 0 min 0 min 16 W/m 6,3 km/h (2 Bft) 95,74 %
08.09.2016 19:52 25,8 C 23,9 C 20,0 C 60 % 0 lf 1011,2 hPa 0,0 l/m 0 min 0 min 15 W/m 4,2 km/h (1 Bft) 97,87 %
08.09.2016 19:54 25,7 C 23,9 C 20,0 C 60 % 0 lf 1011,2 hPa 0,0 l/m 0 min 0 min 13 W/m 4,2 km/h (1 Bft) 95,65 %
08.09.2016 19:56 25,7 C 23,9 C 19,4 C 61 % 0 lf 1011,2 hPa 0,0 l/m 0 min 0 min 12 W/m 4,2 km/h (1 Bft) 95,74 %
08.09.2016 19:58 25,6 C 23,3 C 19,4 C 61 % 0 lf 1011,2 hPa 0,0 l/m 0 min 0 min 11 W/m 6,3 km/h (2 Bft) 95,74 %
08.09.2016 20:00 25,6 C 23,3 C 19,4 C 62 % 0 lf 1011,3 hPa 0,0 l/m 0 min 0 min 11 W/m 4,2 km/h (1 Bft) 95,74 %
08.09.2016 20:02 25,4 C 23,3 C 19,4 C 62 % 0 lf 1011,3 hPa 0,0 l/m 0 min 0 min 9 W/m 4,2 km/h (1 Bft) 95,74 %
08.09.2016 20:04 25,4 C 22,8 C 18,9 C 62 % 0 lf 1011,3 hPa 0,0 l/m 0 min 0 min 9 W/m 2,1 km/h (1 Bft) 95,74 %
08.09.2016 20:06 25,3 C 22,8 C 18,9 C 63 % 0 lf 1011,3 hPa 0,0 l/m 0 min 0 min 8 W/m 0,0 km/h (0 Bft) 97,83 %
08.09.2016 20:08 25,2 C 22,8 C 18,9 C 63 % 0 lf 1011,4 hPa 0,0 l/m 0 min 0 min 7 W/m 2,1 km/h (1 Bft) 91,49 %
08.09.2016 20:10 25,1 C 22,8 C 18,9 C 63 % 0 lf 1011,4 hPa 0,0 l/m 0 min 0 min 7 W/m 2,1 km/h (1 Bft) 93,62 %
08.09.2016 20:12 25,1 C 22,8 C 18,9 C 63 % 0 lf 1011,4 hPa 0,0 l/m 0 min 0 min 5 W/m 2,1 km/h (1 Bft) 91,49 %
08.09.2016 20:14 25,0 C 22,2 C 18,3 C 64 % 0 lf 1011,5 hPa 0,0 l/m 0 min 0 min 5 W/m 0,0 km/h (0 Bft) 93,62 %
08.09.2016 20:16 24,9 C 22,2 C 18,3 C 64 % 0 lf 1011,5 hPa 0,0 l/m 0 min 0 min 5 W/m 0,0 km/h (0 Bft) 91,49 %
08.09.2016 20:18 24,8 C 22,2 C 18,3 C 64 % 0 lf 1011,5 hPa 0,0 l/m 0 min 0 min 1 W/m 0,0 km/h (0 Bft) 89,13 %
08.09.2016 20:20 24,7 C 22,2 C 18,3 C 65 % 0 lf 1011,5 hPa 0,0 l/m 0 min 0 min 0 W/m 0,0 km/h (0 Bft) 89,36 %
08.09.2016 20:22 24,6 C 22,2 C 18,3 C 65 % 0 lf 1011,5 hPa 0,0 l/m 0 min 0 min 0 W/m 0,0 km/h (0 Bft) 93,62 %
08.09.2016 20:24 24,5 C 22,2 C 18,3 C 65 % 0 lf 1011,5 hPa 0,0 l/m 0 min 0 min 0 W/m 0,0 km/h (0 Bft) 93,62 %
08.09.2016 20:26 24,4 C 22,2 C 18,3 C 66 % 0 lf 1011,6 hPa 0,0 l/m 0 min 0 min 0 W/m 0,0 km/h (0 Bft) 93,62 %
08.09.2016 20:28 24,3 C 21,7 C 18,3 C 66 % 0 lf 1011,7 hPa 0,0 l/m 0 min 0 min 0 W/m 0,0 km/h (0 Bft) 91,49 %
08.09.2016 20:30 24,3 C 21,7 C 18,3 C 66 % 0 lf 1011,8 hPa 0,0 l/m 0 min 0 min 0 W/m 0,0 km/h (0 Bft) 91,30 %
08.09.2016 20:32 24,2 C 21,7 C 18,3 C 67 % 0 lf 1011,8 hPa 0,0 l/m 0 min 0 min 0 W/m 0,0 km/h (0 Bft) 95,74 %
08.09.2016 20:34 24,1 C 21,7 C 17,8 C 67 % 0 lf 1011,8 hPa 0,0 l/m 0 min 0 min 0 W/m 2,1 km/h (1 Bft) 93,62 %
08.09.2016 20:36 24,1 C 21,7 C 17,8 C 68 % 0 lf 1011,8 hPa 0,0 l/m 0 min 0 min 0 W/m 4,2 km/h (1 Bft) 93,62 %
08.09.2016 20:38 24,0 C 21,7 C 17,8 C 68 % 0 lf 1011,8 hPa 0,0 l/m 0 min 0 min 0 W/m 4,2 km/h (1 Bft) 93,62 %
08.09.2016 20:40 23,9 C 21,7 C 17,8 C 68 % 0 lf 1011,8 hPa 0,0 l/m 0 min 0 min 0 W/m 0,0 km/h (0 Bft) 93,62 %
08.09.2016 20:42 23,8 C 21,7 C 18,3 C 68 % 0 lf 1011,9 hPa 0,0 l/m 0 min 0 min 0 W/m 0,0 km/h (0 Bft) 97,83 %
08.09.2016 20:44 23,7 C 21,7 C 17,8 C 68 % 0 lf 1011,9 hPa 0,0 l/m 0 min 0 min 0 W/m 0,0 km/h (0 Bft) 95,74 %
08.09.2016 20:46 23,7 C 21,1 C 17,8 C 68 % 0 lf 1011,9 hPa 0,0 l/m 0 min 0 min 0 W/m 0,0 km/h (0 Bft) 97,87 %
08.09.2016 20:48 23,6 C 21,1 C 17,8 C 68 % 0 lf 1012,0 hPa 0,0 l/m 0 min 0 min 0 W/m 0,0 km/h (0 Bft) 97,87 %
08.09.2016 20:50 23,5 C 21,1 C 17,8 C 68 % 0 lf 1012,0 hPa 0,0 l/m 0 min 0 min 0 W/m 0,0 km/h (0 Bft) 97,87 %
08.09.2016 20:52 23,4 C 21,1 C 17,8 C 69 % 0 lf 1012,0 hPa 0,0 l/m 0 min 0 min 0 W/m 0,0 km/h (0 Bft) 93,48 %
08.09.2016 20:54 23,3 C 21,1 C 17,8 C 69 % 0 lf 1011,9 hPa 0,0 l/m 0 min 0 min 0 W/m 6,3 km/h (2 Bft) 100,00 %
08.09.2016 20:56 23,2 C 21,1 C 17,8 C 69 % 0 lf 1012,0 hPa 0,0 l/m 0 min 0 min 0 W/m 6,3 km/h (2 Bft) 100,00 %
08.09.2016 20:58 23,2 C 21,1 C 17,8 C 70 % 0 lf 1012,0 hPa 0,0 l/m 0 min 0 min 0 W/m 4,2 km/h (1 Bft) 97,87 %
08.09.2016 21:00 23,1 C 21,1 C 17,8 C 70 % 0 lf 1012,0 hPa 0,0 l/m 0 min 0 min 0 W/m 6,3 km/h (2 Bft) 100,00 %
08.09.2016 21:02 23,0 C 20,6 C 17,2 C 70 % 0 lf 1012,0 hPa 0,0 l/m 0 min 0 min 0 W/m 6,3 km/h (2 Bft) 97,87 %
08.09.2016 21:04 22,9 C 20,6 C 17,2 C 71 % 0 lf 1012,0 hPa 0,0 l/m 0 min 0 min 0 W/m 4,2 km/h (1 Bft) 97,83 %
08.09.2016 21:06 22,8 C 20,6 C 17,2 C 71 % 0 lf 1012,0 hPa 0,0 l/m 0 min 0 min 0 W/m 4,2 km/h (1 Bft) 97,87 %
08.09.2016 21:08 22,8 C 20,6 C 17,2 C 71 % 0 lf 1012,1 hPa 0,0 l/m 0 min 0 min 0 W/m 6,3 km/h (2 Bft) 100,00 %
08.09.2016 21:10 22,7 C 20,6 C 17,2 C 72 % 0 lf 1012,2 hPa 0,0 l/m 0 min 0 min 0 W/m 6,3 km/h (2 Bft) 100,00 %
08.09.2016 21:12 22,6 C 20,6 C 17,2 C 72 % 0 lf 1012,3 hPa 0,0 l/m 0 min 0 min 0 W/m 8,4 km/h (2 Bft) 97,87 %
08.09.2016 21:14 22,5 C 20,6 C 17,2 C 72 % 0 lf 1012,3 hPa 0,0 l/m 0 min 0 min 0 W/m 8,4 km/h (2 Bft) 100,00 %
08.09.2016 21:16 22,4 C 20,6 C 17,2 C 72 % 0 lf 1012,3 hPa 0,0 l/m 0 min 0 min 0 W/m 8,4 km/h (2 Bft) 100,00 %
08.09.2016 21:18 22,4 C 20,6 C 17,8 C 72 % 0 lf 1012,4 hPa 0,0 l/m 0 min 0 min 0 W/m 8,4 km/h (2 Bft) 100,00 %
08.09.2016 21:20 22,3 C 20,6 C 17,8 C 72 % 0 lf 1012,4 hPa 0,0 l/m 0 min 0 min 0 W/m 4,2 km/h (1 Bft) 100,00 %
08.09.2016 21:22 22,2 C 20,6 C 17,8 C 72 % 0 lf 1012,5 hPa 0,0 l/m 0 min 0 min 0 W/m 4,2 km/h (1 Bft) 100,00 %
08.09.2016 21:24 22,2 C 20,6 C 17,2 C 72 % 0 lf 1012,6 hPa 0,0 l/m 0 min 0 min 0 W/m 6,3 km/h (2 Bft) 100,00 %
08.09.2016 21:26 22,1 C 20,6 C 17,2 C 72 % 0 lf 1012,6 hPa 0,0 l/m 0 min 0 min 0 W/m 6,3 km/h (2 Bft) 97,87 %
08.09.2016 21:28 22,1 C 20,6 C 17,8 C 72 % 0 lf 1012,6 hPa 0,0 l/m 0 min 0 min 0 W/m 6,3 km/h (2 Bft) 93,48 %
08.09.2016 21:30 22,0 C 20,6 C 17,8 C 73 % 0 lf 1012,6 hPa 0,0 l/m 0 min 0 min 0 W/m 10,5 km/h (2 Bft) 97,87 %
08.09.2016 21:32 21,9 C 21,1 C 17,8 C 73 % 0 lf 1012,6 hPa 0,0 l/m 0 min 0 min 0 W/m 12,6 km/h (3 Bft) 100,00 %
08.09.2016 21:34 21,9 C 21,1 C 18,3 C 73 % 0 lf 1012,7 hPa 0,0 l/m 0 min 0 min 0 W/m 12,6 km/h (3 Bft) 97,87 %
08.09.2016 21:36 21,8 C 21,1 C 18,3 C 74 % 0 lf 1012,7 hPa 0,0 l/m 0 min 0 min 0 W/m 16,7 km/h (3 Bft) 100,00 %
08.09.2016 21:38 21,8 C 21,1 C 18,9 C 74 % 0 lf 1012,8 hPa 0,0 l/m 0 min 0 min 0 W/m 16,7 km/h (3 Bft) 93,62 %
08.09.2016 21:40 21,8 C 21,7 C 18,9 C 75 % 0 lf 1012,8 hPa 0,0 l/m 0 min 0 min 0 W/m 12,6 km/h (3 Bft) 97,83 %
08.09.2016 21:42 21,7 C 21,7 C 18,9 C 75 % 0 lf 1012,9 hPa 0,0 l/m 0 min 0 min 0 W/m 12,6 km/h (3 Bft) 95,74 %
08.09.2016 21:44 21,7 C 21,1 C 18,9 C 75 % 0 lf 1012,9 hPa 0,0 l/m 0 min 0 min 0 W/m 8,4 km/h (2 Bft) 95,74 %
08.09.2016 21:46 21,7 C 21,7 C 18,3 C 76 % 0 lf 1012,9 hPa 0,0 l/m 0 min 0 min 0 W/m 12,6 km/h (3 Bft) 97,87 %
08.09.2016 21:48 21,7 C 21,1 C 18,3 C 76 % 0 lf 1013,0 hPa 0,0 l/m 0 min 0 min 0 W/m 12,6 km/h (3 Bft) 97,87 %
08.09.2016 21:50 21,7 C 21,1 C 18,3 C 76 % 0 lf 1013,1 hPa 0,0 l/m 0 min 0 min 0 W/m 8,4 km/h (2 Bft) 97,87 %
08.09.2016 21:52 21,7 C 21,1 C 18,3 C 76 % 0 lf 1013,2 hPa 0,0 l/m 0 min 0 min 0 W/m 8,4 km/h (2 Bft) 93,48 %
08.09.2016 21:54 21,7 C 21,1 C 18,3 C 76 % 0 lf 1013,2 hPa 0,0 l/m 0 min 0 min 0 W/m 8,4 km/h (2 Bft) 97,87 %
08.09.2016 21:56 21,7 C 21,1 C 18,3 C 76 % 0 lf 1013,2 hPa 0,0 l/m 0 min 0 min 0 W/m 8,4 km/h (2 Bft) 97,87 %
08.09.2016 21:58 21,7 C 21,1 C 17,8 C 76 % 0 lf 1013,2 hPa 0,0 l/m 0 min 0 min 0 W/m 8,4 km/h (2 Bft) 95,74 %
08.09.2016 22:00 21,7 C 21,1 C 17,8 C 76 % 0 lf 1013,3 hPa 0,0 l/m 0 min 0 min 0 W/m 4,2 km/h (1 Bft) 95,74 %
08.09.2016 22:02 21,7 C 20,6 C 17,8 C 77 % 0 lf 1013,3 hPa 0,0 l/m 0 min 0 min 0 W/m 8,4 km/h (2 Bft) 93,62 %
08.09.2016 22:04 21,7 C 20,6 C 17,8 C 77 % 0 lf 1013,2 hPa 0,0 l/m 0 min 0 min 0 W/m 8,4 km/h (2 Bft) 95,65 %
08.09.2016 22:06 21,7 C 20,6 C 17,8 C 77 % 0 lf 1013,3 hPa 0,0 l/m 0 min 0 min 0 W/m 10,5 km/h (2 Bft) 95,74 %
08.09.2016 22:08 21,7 C 20,6 C 18,3 C 78 % 0 lf 1013,3 hPa 0,0 l/m 0 min 0 min 0 W/m 12,6 km/h (3 Bft) 91,49 %
08.09.2016 22:10 21,6 C 20,6 C 17,8 C 77 % 0 lf 1013,4 hPa 0,0 l/m 0 min 0 min 4 W/m 16,7 km/h (3 Bft) 93,62 %
08.09.2016 22:12 21,6 C 20,6 C 18,3 C 78 % 0 lf 1013,4 hPa 0,0 l/m 0 min 0 min 5 W/m 10,5 km/h (2 Bft) 95,74 %
08.09.2016 22:14 21,6 C 20,6 C 18,3 C 78 % 0 lf 1013,5 hPa 0,0 l/m 0 min 0 min 5 W/m 14,6 km/h (3 Bft) 93,62 %
08.09.2016 22:16 21,6 C 20,6 C 18,3 C 78 % 0 lf 1013,5 hPa 0,0 l/m 0 min 0 min 5 W/m 14,6 km/h (3 Bft) 93,48 %
08.09.2016 22:18 21,5 C 20,6 C 18,3 C 78 % 0 lf 1013,5 hPa 0,0 l/m 0 min 0 min 5 W/m 12,6 km/h (3 Bft) 95,74 %
08.09.2016 22:20 21,5 C 20,6 C 18,3 C 78 % 0 lf 1013,5 hPa 0,0 l/m 0 min 0 min 0 W/m 10,5 km/h (2 Bft) 95,74 %
08.09.2016 22:22 21,5 C 20,6 C 18,3 C 78 % 0 lf 1013,5 hPa 0,0 l/m 0 min 0 min 0 W/m 12,6 km/h (3 Bft) 95,74 %
08.09.2016 22:24 21,4 C 20,6 C 18,3 C 78 % 0 lf 1013,5 hPa 0,0 l/m 0 min 0 min 0 W/m 10,5 km/h (2 Bft) 95,74 %
08.09.2016 22:26 21,4 C 20,6 C 18,3 C 79 % 0 lf 1013,6 hPa 0,0 l/m 0 min 0 min 0 W/m 12,6 km/h (3 Bft) 95,74 %
08.09.2016 22:28 21,4 C 20,6 C 18,3 C 79 % 0 lf 1013,6 hPa 0,0 l/m 0 min 0 min 5 W/m 10,5 km/h (2 Bft) 95,65 %
08.09.2016 22:30 21,4 C 20,6 C 18,3 C 79 % 0 lf 1013,6 hPa 0,0 l/m 0 min 0 min 5 W/m 12,6 km/h (3 Bft) 89,36 %
08.09.2016 22:32 21,3 C 20,6 C 18,3 C 79 % 0 lf 1013,7 hPa 0,0 l/m 0 min 0 min 5 W/m 12,6 km/h (3 Bft) 95,74 %
08.09.2016 22:34 21,3 C 20,6 C 18,3 C 79 % 0 lf 1013,6 hPa 0,0 l/m 0 min 0 min 5 W/m 12,6 km/h (3 Bft) 93,62 %
08.09.2016 22:36 21,3 C 20,6 C 18,3 C 79 % 0 lf 1013,6 hPa 0,0 l/m 0 min 0 min 5 W/m 14,6 km/h (3 Bft) 95,74 %
08.09.2016 22:38 21,3 C 20,6 C 18,3 C 79 % 0 lf 1013,7 hPa 0,0 l/m 0 min 0 min 5 W/m 16,7 km/h (3 Bft) 100,00 %
08.09.2016 22:40 21,2 C 20,6 C 18,3 C 80 % 0 lf 1013,7 hPa 0,0 l/m 0 min 0 min 5 W/m 14,6 km/h (3 Bft) 93,62 %
08.09.2016 22:42 21,2 C 20,6 C 18,3 C 80 % 0 lf 1013,7 hPa 0,0 l/m 0 min 0 min 5 W/m 18,8 km/h (3 Bft) 97,87 %
08.09.2016 22:44 21,2 C 20,6 C 18,3 C 80 % 0 lf 1013,8 hPa 0,0 l/m 0 min 0 min 5 W/m 12,6 km/h (3 Bft) 95,74 %
08.09.2016 22:46 21,2 C 20,6 C 18,3 C 80 % 0 lf 1013,8 hPa 0,0 l/m 0 min 0 min 5 W/m 16,7 km/h (3 Bft) 97,87 %
08.09.2016 22:48 21,1 C 20,6 C 18,3 C 80 % 0 lf 1013,9 hPa 0,0 l/m 0 min 0 min 5 W/m 16,7 km/h (3 Bft) 97,87 %
08.09.2016 22:50 21,1 C 20,6 C 18,9 C 80 % 0 lf 1013,9 hPa 0,0 l/m 0 min 0 min 5 W/m 23,0 km/h (4 Bft) 97,83 %
08.09.2016 22:52 21,1 C 20,6 C 18,9 C 80 % 0 lf 1014,0 hPa 0,0 l/m 0 min 0 min 0 W/m 20,9 km/h (4 Bft) 89,36 %
08.09.2016 22:54 21,0 C 20,6 C 18,9 C 79 % 0 lf 1014,0 hPa 0,0 l/m 0 min 0 min 0 W/m 23,0 km/h (4 Bft) 95,74 %
08.09.2016 22:56 21,0 C 20,6 C 18,3 C 79 % 0 lf 1014,0 hPa 0,0 l/m 0 min 0 min 0 W/m 20,9 km/h (4 Bft) 89,36 %
08.09.2016 22:58 21,0 C 20,6 C 18,9 C 79 % 0 lf 1014,0 hPa 0,0 l/m 0 min 0 min 5 W/m 25,1 km/h (4 Bft) 93,62 %
08.09.2016 23:00 20,9 C 20,6 C 18,9 C 78 % 0 lf 1014,0 hPa 0,0 l/m 0 min 0 min 5 W/m 18,8 km/h (3 Bft) 93,62 %
08.09.2016 23:02 20,9 C 20,6 C 18,9 C 78 % 0 lf 1014,0 hPa 0,0 l/m 0 min 0 min 5 W/m 14,6 km/h (3 Bft) 95,65 %
08.09.2016 23:04 20,9 C 20,6 C 18,3 C 78 % 0 lf 1014,0 hPa 0,0 l/m 0 min 0 min 5 W/m 16,7 km/h (3 Bft) 95,74 %
08.09.2016 23:06 20,9 C 20,6 C 18,3 C 78 % 0 lf 1014,0 hPa 0,0 l/m 0 min 0 min 5 W/m 16,7 km/h (3 Bft) 95,74 %
08.09.2016 23:08 20,9 C 20,0 C 18,3 C 78 % 0 lf 1014,0 hPa 0,0 l/m 0 min 0 min 5 W/m 16,7 km/h (3 Bft) 95,74 %
08.09.2016 23:10 20,9 C 20,0 C 18,3 C 78 % 0 lf 1014,1 hPa 0,0 l/m 0 min 0 min 0 W/m 14,6 km/h (3 Bft) 91,49 %
08.09.2016 23:12 20,8 C 20,0 C 18,3 C 78 % 0 lf 1014,1 hPa 0,0 l/m 0 min 0 min 0 W/m 12,6 km/h (3 Bft) 95,74 %
08.09.2016 23:14 20,8 C 20,0 C 18,3 C 78 % 0 lf 1014,1 hPa 0,0 l/m 0 min 0 min 0 W/m 10,5 km/h (2 Bft) 95,65 %
08.09.2016 23:16 20,8 C 20,0 C 18,3 C 78 % 0 lf 1014,1 hPa 0,0 l/m 0 min 0 min 0 W/m 12,6 km/h (3 Bft) 95,74 %
08.09.2016 23:18 20,8 C 20,0 C 17,8 C 78 % 0 lf 1014,1 hPa 0,0 l/m 0 min 0 min 0 W/m 10,5 km/h (2 Bft) 95,74 %
08.09.2016 23:20 20,8 C 20,0 C 17,8 C 78 % 0 lf 1014,1 hPa 0,0 l/m 0 min 0 min 5 W/m 12,6 km/h (3 Bft) 93,62 %
08.09.2016 23:22 20,7 C 20,0 C 18,3 C 78 % 0 lf 1014,2 hPa 0,0 l/m 0 min 0 min 2 W/m 10,5 km/h (2 Bft) 93,62 %
08.09.2016 23:24 20,7 C 20,0 C 18,3 C 78 % 0 lf 1014,2 hPa 0,0 l/m 0 min 0 min 0 W/m 10,5 km/h (2 Bft) 95,74 %
08.09.2016 23:26 20,7 C 20,0 C 18,3 C 78 % 0 lf 1014,3 hPa 0,0 l/m 0 min 0 min 2 W/m 12,6 km/h (3 Bft) 89,13 %
08.09.2016 23:28 20,7 C 20,0 C 18,3 C 78 % 0 lf 1014,3 hPa 0,0 l/m 0 min 0 min 5 W/m 10,5 km/h (2 Bft) 91,49 %
08.09.2016 23:30 20,7 C 20,0 C 18,3 C 78 % 0 lf 1014,3 hPa 0,0 l/m 0 min 0 min 5 W/m 14,6 km/h (3 Bft) 95,74 %
08.09.2016 23:32 20,6 C 20,0 C 18,3 C 78 % 0 lf 1014,4 hPa 0,0 l/m 0 min 0 min 5 W/m 8,4 km/h (2 Bft) 95,74 %
08.09.2016 23:34 20,6 C 20,0 C 17,8 C 78 % 0 lf 1014,4 hPa 0,0 l/m 0 min 0 min 5 W/m 8,4 km/h (2 Bft) 93,62 %
08.09.2016 23:36 20,6 C 19,4 C 17,8 C 78 % 0 lf 1014,4 hPa 0,0 l/m 0 min 0 min 5 W/m 8,4 km/h (2 Bft) 95,65 %
08.09.2016 23:38 20,6 C 19,4 C 17,8 C 78 % 0 lf 1014,5 hPa 0,0 l/m 0 min 0 min 5 W/m 14,6 km/h (3 Bft) 97,87 %
08.09.2016 23:40 20,5 C 19,4 C 17,8 C 79 % 0 lf 1014,4 hPa 0,0 l/m 0 min 0 min 5 W/m 12,6 km/h (3 Bft) 93,62 %
08.09.2016 23:42 20,5 C 19,4 C 17,2 C 79 % 0 lf 1014,5 hPa 0,0 l/m 0 min 0 min 5 W/m 10,5 km/h (2 Bft) 97,87 %
08.09.2016 23:44 20,4 C 19,4 C 17,2 C 79 % 0 lf 1014,5 hPa 0,0 l/m 0 min 0 min 5 W/m 8,4 km/h (2 Bft) 100,00 %
08.09.2016 23:46 20,4 C 19,4 C 17,2 C 79 % 0 lf 1014,6 hPa 0,0 l/m 0 min 0 min 5 W/m 6,3 km/h (2 Bft) 100,00 %
08.09.2016 23:48 20,4 C 19,4 C 17,2 C 79 % 0 lf 1014,6 hPa 0,0 l/m 0 min 0 min 5 W/m 6,3 km/h (2 Bft) 97,83 %
08.09.2016 23:50 20,4 C 18,9 C 16,7 C 79 % 0 lf 1014,6 hPa 0,0 l/m 0 min 0 min 5 W/m 4,2 km/h (1 Bft) 95,74 %
08.09.2016 23:52 20,4 C 18,9 C 16,7 C 79 % 0 lf 1014,7 hPa 0,0 l/m 0 min 0 min 5 W/m 6,3 km/h (2 Bft) 100,00 %
08.09.2016 23:54 20,3 C 18,9 C 16,7 C 79 % 0 lf 1014,7 hPa 0,0 l/m 0 min 0 min 5 W/m 4,2 km/h (1 Bft) 95,74 %
08.09.2016 23:56 20,3 C 18,9 C 16,7 C 79 % 0 lf 1014,7 hPa 0,0 l/m 0 min 0 min 5 W/m 10,5 km/h (2 Bft) 100,00 %
08.09.2016 23:58 20,2 C 18,9 C 16,7 C 79 % 0 lf 1014,7 hPa 0,0 l/m 0 min 0 min 5 W/m 8,4 km/h (2 Bft) 100,00 %
_ Min-Zeit 07:12 03:08 03:34 16:06 08:56 12:24 - - - - 00:00 04:14
Minimum _ 14,7 C 13,9 C 12,2 C 51 % 0 lf 1009,7 hPa - - - - 0,0 km/h (0 Bft) 85,71 %
_ Max-Zeit 15:56 14:00 12:16 07:24 05:52 23:52 00:00 07:18 00:00 14:44 14:42 01:04
Maximum _ 29,3 C 38,9 C 31,7 C 96 % 15 lf 1014,7 hPa 0,0 l/m 2 min 0 min 1245 W/m 33,5 km/h
SW (5 Bft)
100,00 %
Durchschnitt _ 21,8 C 24,0 C 19,7 C 74 % 2 lf 1011,2 hPa #0,0 l/m #11:34 h #0 min. 531 W/m 10,5 km/h (2 Bft) 96,23 %
© 2016 W. Hausmann